Wetterdaten: Sonntag, 11.12.2016
Datum Zeit Temp. A. Feuchte A. Luftdruck Regen Wind Richtung Richtung Sonnenschein ET UV Solar Taupunkt Windchill Windben Empfang
11.12.2016 00:00 0,3 C 96 % 1023,0 hPa 0,0 l/m 1,5 km/h (1 Bft) S 180 0 min 0,000 mm 0,0 UV-I 0 W/m -0,3 C 0,3 C 3,2 km/h (1 Bft) 100,00 %
11.12.2016 00:02 0,3 C 96 % 1022,9 hPa 0,0 l/m 0,8 km/h (0 Bft) S 180 0 min 0,000 mm 0,0 UV-I 0 W/m -0,3 C 0,3 C 1,6 km/h (1 Bft) 100,00 %
11.12.2016 00:04 0,4 C 96 % 1022,9 hPa 0,0 l/m 1,0 km/h (0 Bft) S 180 0 min 0,000 mm 0,0 UV-I 0 W/m -0,2 C 0,4 C 1,6 km/h (1 Bft) 100,00 %
11.12.2016 00:06 0,4 C 96 % 1022,9 hPa 0,0 l/m 1,4 km/h (1 Bft) S 179 0 min 0,000 mm 0,0 UV-I 0 W/m -0,2 C 0,4 C 3,2 km/h (1 Bft) 100,00 %
11.12.2016 00:08 0,4 C 96 % 1022,9 hPa 0,0 l/m 2,4 km/h (1 Bft) S 180 0 min 0,000 mm 0,0 UV-I 0 W/m -0,2 C 0,4 C 4,8 km/h (1 Bft) 100,00 %
11.12.2016 00:10 0,2 C 95 % 1022,9 hPa 0,0 l/m 2,9 km/h (1 Bft) S 179 0 min 0,000 mm 0,0 UV-I 0 W/m -0,5 C 0,2 C 4,8 km/h (1 Bft) 100,00 %
11.12.2016 00:12 0,0 C 95 % 1022,9 hPa 0,0 l/m 2,1 km/h (1 Bft) S 180 0 min 0,000 mm 0,0 UV-I 0 W/m -0,7 C 0,0 C 3,2 km/h (1 Bft) 100,00 %
11.12.2016 00:14 -0,2 C 95 % 1023,0 hPa 0,0 l/m 3,4 km/h (1 Bft) S 179 0 min 0,000 mm 0,0 UV-I 0 W/m -0,9 C -0,2 C 4,8 km/h (1 Bft) 100,00 %
11.12.2016 00:16 -0,3 C 95 % 1023,0 hPa 0,0 l/m 3,1 km/h (1 Bft) S 179 0 min 0,000 mm 0,0 UV-I 0 W/m -1,0 C -0,3 C 3,2 km/h (1 Bft) 97,87 %
11.12.2016 00:18 -0,3 C 95 % 1022,9 hPa 0,0 l/m 4,0 km/h (1 Bft) S 180 0 min 0,000 mm 0,0 UV-I 0 W/m -1,0 C -0,3 C 4,8 km/h (1 Bft) 100,00 %
11.12.2016 00:20 -0,4 C 95 % 1023,0 hPa 0,0 l/m 2,9 km/h (1 Bft) S 180 0 min 0,000 mm 0,0 UV-I 0 W/m -1,1 C -0,4 C 3,2 km/h (1 Bft) 100,00 %
11.12.2016 00:22 -0,5 C 95 % 1022,9 hPa 0,0 l/m 3,2 km/h (1 Bft) S 180 0 min 0,000 mm 0,0 UV-I 0 W/m -1,2 C -0,5 C 4,8 km/h (1 Bft) 97,87 %
11.12.2016 00:24 -0,5 C 95 % 1022,9 hPa 0,0 l/m 3,4 km/h (1 Bft) S 180 0 min 0,000 mm 0,0 UV-I 0 W/m -1,2 C -0,5 C 4,8 km/h (1 Bft) 100,00 %
11.12.2016 00:26 -0,6 C 95 % 1022,9 hPa 0,0 l/m 3,6 km/h (1 Bft) S 180 0 min 0,000 mm 0,0 UV-I 0 W/m -1,3 C -0,6 C 4,8 km/h (1 Bft) 100,00 %
11.12.2016 00:28 -0,4 C 96 % 1022,8 hPa 0,0 l/m 3,1 km/h (1 Bft) S 180 0 min 0,000 mm 0,0 UV-I 0 W/m -1,0 C -0,4 C 4,8 km/h (1 Bft) 100,00 %
11.12.2016 00:30 -0,3 C 96 % 1022,8 hPa 0,0 l/m 2,4 km/h (1 Bft) S 180 0 min 0,000 mm 0,0 UV-I 0 W/m -0,9 C -0,3 C 3,2 km/h (1 Bft) 100,00 %
11.12.2016 00:32 -0,3 C 96 % 1022,8 hPa 0,0 l/m 2,0 km/h (1 Bft) S 180 0 min 0,000 mm 0,0 UV-I 0 W/m -0,9 C -0,3 C 3,2 km/h (1 Bft) 100,00 %
11.12.2016 00:34 -0,3 C 96 % 1022,8 hPa 0,0 l/m 1,8 km/h (1 Bft) S 180 0 min 0,000 mm 0,0 UV-I 0 W/m -0,9 C -0,3 C 3,2 km/h (1 Bft) 97,44 %
11.12.2016 00:36 -0,4 C 96 % 1022,7 hPa 0,0 l/m 1,8 km/h (1 Bft) S 180 0 min 0,000 mm 0,0 UV-I 0 W/m -1,0 C -0,4 C 3,2 km/h (1 Bft) 100,00 %
11.12.2016 00:38 -0,4 C 96 % 1022,7 hPa 0,0 l/m 2,1 km/h (1 Bft) S 180 0 min 0,000 mm 0,0 UV-I 0 W/m -1,0 C -0,4 C 3,2 km/h (1 Bft) 100,00 %
11.12.2016 00:40 -0,3 C 96 % 1022,7 hPa 0,0 l/m 2,4 km/h (1 Bft) S 180 0 min 0,000 mm 0,0 UV-I 0 W/m -0,9 C -0,3 C 3,2 km/h (1 Bft) 100,00 %
11.12.2016 00:42 -0,3 C 96 % 1022,7 hPa 0,0 l/m 1,7 km/h (1 Bft) S 180 0 min 0,000 mm 0,0 UV-I 0 W/m -0,9 C -0,3 C 3,2 km/h (1 Bft) 100,00 %
11.12.2016 00:44 -0,3 C 96 % 1022,6 hPa 0,0 l/m 1,2 km/h (1 Bft) S 180 0 min 0,000 mm 0,0 UV-I 0 W/m -0,9 C -0,3 C 3,2 km/h (1 Bft) 100,00 %
11.12.2016 00:46 -0,3 C 96 % 1022,6 hPa 0,0 l/m 1,8 km/h (1 Bft) S 180 0 min 0,000 mm 0,0 UV-I 0 W/m -0,9 C -0,3 C 3,2 km/h (1 Bft) 98,00 %
11.12.2016 00:48 -0,3 C 96 % 1022,6 hPa 0,0 l/m 2,2 km/h (1 Bft) S 180 0 min 0,000 mm 0,0 UV-I 0 W/m -0,9 C -0,3 C 3,2 km/h (1 Bft) 100,00 %
11.12.2016 00:50 -0,3 C 96 % 1022,5 hPa 0,0 l/m 1,9 km/h (1 Bft) S 179 0 min 0,000 mm 0,0 UV-I 0 W/m -0,9 C -0,3 C 3,2 km/h (1 Bft) 100,00 %
11.12.2016 00:52 -0,3 C 96 % 1022,5 hPa 0,0 l/m 1,8 km/h (1 Bft) S 180 0 min 0,000 mm 0,0 UV-I 0 W/m -0,9 C -0,3 C 3,2 km/h (1 Bft) 100,00 %
11.12.2016 00:54 -0,3 C 96 % 1022,5 hPa 0,0 l/m 1,7 km/h (1 Bft) S 180 0 min 0,000 mm 0,0 UV-I 0 W/m -0,9 C -0,3 C 3,2 km/h (1 Bft) 100,00 %
11.12.2016 00:56 -0,3 C 96 % 1022,5 hPa 0,0 l/m 2,6 km/h (1 Bft) S 180 0 min 0,000 mm 0,0 UV-I 0 W/m -0,9 C -0,3 C 3,2 km/h (1 Bft) 100,00 %
11.12.2016 00:58 -0,3 C 96 % 1022,5 hPa 0,0 l/m 2,2 km/h (1 Bft) S 180 0 min 0,000 mm 0,0 UV-I 0 W/m -0,9 C -0,3 C 3,2 km/h (1 Bft) 100,00 %
11.12.2016 01:00 -0,3 C 96 % 1022,5 hPa 0,0 l/m 2,8 km/h (1 Bft) S 180 0 min 0,000 mm 0,0 UV-I 0 W/m -0,9 C -0,3 C 4,8 km/h (1 Bft) 100,00 %
11.12.2016 01:02 -0,2 C 96 % 1022,6 hPa 0,0 l/m 1,5 km/h (1 Bft) S 180 0 min 0,000 mm 0,0 UV-I 0 W/m -0,8 C -0,2 C 3,2 km/h (1 Bft) 100,00 %
11.12.2016 01:04 -0,3 C 96 % 1022,6 hPa 0,0 l/m 1,1 km/h (1 Bft) S 180 0 min 0,000 mm 0,0 UV-I 0 W/m -0,9 C -0,3 C 1,6 km/h (1 Bft) 100,00 %
11.12.2016 01:06 -0,4 C 96 % 1022,5 hPa 0,0 l/m 1,6 km/h (1 Bft) S 180 0 min 0,000 mm 0,0 UV-I 0 W/m -1,0 C -0,4 C 3,2 km/h (1 Bft) 100,00 %
11.12.2016 01:08 -0,3 C 96 % 1022,4 hPa 0,0 l/m 1,8 km/h (1 Bft) S 179 0 min 0,000 mm 0,0 UV-I 0 W/m -0,9 C -0,3 C 3,2 km/h (1 Bft) 100,00 %
11.12.2016 01:10 -0,3 C 96 % 1022,4 hPa 0,0 l/m 1,0 km/h (0 Bft) S 180 0 min 0,000 mm 0,0 UV-I 0 W/m -0,9 C -0,3 C 3,2 km/h (1 Bft) 100,00 %
11.12.2016 01:12 -0,3 C 96 % 1022,4 hPa 0,0 l/m 1,8 km/h (1 Bft) S 180 0 min 0,000 mm 0,0 UV-I 0 W/m -0,9 C -0,3 C 3,2 km/h (1 Bft) 98,00 %
11.12.2016 01:14 -0,3 C 96 % 1022,4 hPa 0,0 l/m 1,9 km/h (1 Bft) S 179 0 min 0,000 mm 0,0 UV-I 0 W/m -0,9 C -0,3 C 3,2 km/h (1 Bft) 97,22 %
11.12.2016 01:16 -0,3 C 96 % 1022,4 hPa 0,0 l/m 1,1 km/h (1 Bft) S 180 0 min 0,000 mm 0,0 UV-I 0 W/m -0,9 C -0,3 C 3,2 km/h (1 Bft) 100,00 %
11.12.2016 01:18 -0,2 C 96 % 1022,4 hPa 0,0 l/m 1,9 km/h (1 Bft) S 180 0 min 0,000 mm 0,0 UV-I 0 W/m -0,8 C -0,2 C 4,8 km/h (1 Bft) 100,00 %
11.12.2016 01:20 -0,1 C 96 % 1022,2 hPa 0,0 l/m 2,0 km/h (1 Bft) S 180 0 min 0,000 mm 0,0 UV-I 0 W/m -0,7 C -0,1 C 4,8 km/h (1 Bft) 100,00 %
11.12.2016 01:22 0,1 C 96 % 1022,2 hPa 0,0 l/m 1,9 km/h (1 Bft) S 180 0 min 0,000 mm 0,0 UV-I 0 W/m -0,5 C 0,1 C 3,2 km/h (1 Bft) 97,56 %
11.12.2016 01:24 0,1 C 96 % 1022,2 hPa 0,0 l/m 1,8 km/h (1 Bft) S 180 0 min 0,000 mm 0,0 UV-I 0 W/m -0,5 C 0,1 C 4,8 km/h (1 Bft) 98,00 %
11.12.2016 01:26 0,1 C 96 % 1022,2 hPa 0,0 l/m 2,6 km/h (1 Bft) S 180 0 min 0,000 mm 0,0 UV-I 0 W/m -0,5 C 0,1 C 4,8 km/h (1 Bft) 96,00 %
11.12.2016 01:28 0,1 C 95 % 1022,2 hPa 0,0 l/m 1,6 km/h (1 Bft) S 180 0 min 0,000 mm 0,0 UV-I 0 W/m -0,6 C 0,1 C 3,2 km/h (1 Bft) 100,00 %
11.12.2016 01:30 0,1 C 95 % 1022,2 hPa 0,0 l/m 1,7 km/h (1 Bft) S 180 0 min 0,000 mm 0,0 UV-I 0 W/m -0,6 C 0,1 C 3,2 km/h (1 Bft) 96,00 %
11.12.2016 01:32 0,0 C 95 % 1022,2 hPa 0,0 l/m 2,3 km/h (1 Bft) S 180 0 min 0,000 mm 0,0 UV-I 0 W/m -0,7 C 0,0 C 3,2 km/h (1 Bft) 96,23 %
11.12.2016 01:34 -0,1 C 95 % 1022,2 hPa 0,0 l/m 2,6 km/h (1 Bft) S 180 0 min 0,000 mm 0,0 UV-I 0 W/m -0,8 C -0,1 C 3,2 km/h (1 Bft) 97,87 %
11.12.2016 01:36 -0,2 C 95 % 1022,2 hPa 0,0 l/m 2,9 km/h (1 Bft) S 180 0 min 0,000 mm 0,0 UV-I 0 W/m -0,9 C -0,2 C 4,8 km/h (1 Bft) 97,14 %
11.12.2016 01:38 -0,4 C 94 % 1022,1 hPa 0,0 l/m 3,7 km/h (1 Bft) S 180 0 min 0,000 mm 0,0 UV-I 0 W/m -1,2 C -0,4 C 4,8 km/h (1 Bft) 98,00 %
11.12.2016 01:40 -0,6 C 94 % 1022,1 hPa 0,0 l/m 4,9 km/h (1 Bft) S 180 0 min 0,000 mm 0,0 UV-I 0 W/m -1,4 C -0,6 C 6,4 km/h (2 Bft) 96,43 %
11.12.2016 01:42 -0,6 C 95 % 1022,0 hPa 0,0 l/m 4,5 km/h (1 Bft) S 181 0 min 0,000 mm 0,0 UV-I 0 W/m -1,3 C -0,6 C 6,4 km/h (2 Bft) 97,37 %
11.12.2016 01:44 -0,5 C 95 % 1022,0 hPa 0,0 l/m 3,2 km/h (1 Bft) S 181 0 min 0,000 mm 0,0 UV-I 0 W/m -1,2 C -0,5 C 6,4 km/h (2 Bft) 98,00 %
11.12.2016 01:46 -0,4 C 95 % 1022,0 hPa 0,0 l/m 2,9 km/h (1 Bft) S 181 0 min 0,000 mm 0,0 UV-I 0 W/m -1,1 C -0,4 C 4,8 km/h (1 Bft) 96,00 %
11.12.2016 01:48 -0,4 C 95 % 1021,9 hPa 0,0 l/m 3,3 km/h (1 Bft) S 181 0 min 0,000 mm 0,0 UV-I 0 W/m -1,1 C -0,4 C 4,8 km/h (1 Bft) 97,73 %
11.12.2016 01:50 -0,3 C 95 % 1021,9 hPa 0,0 l/m 3,4 km/h (1 Bft) S 181 0 min 0,000 mm 0,0 UV-I 0 W/m -1,0 C -0,3 C 4,8 km/h (1 Bft) 96,23 %
11.12.2016 01:52 -0,2 C 96 % 1021,9 hPa 0,0 l/m 2,2 km/h (1 Bft) S 181 0 min 0,000 mm 0,0 UV-I 0 W/m -0,8 C -0,2 C 4,8 km/h (1 Bft) 97,56 %
11.12.2016 01:54 0,0 C 96 % 1021,9 hPa 0,0 l/m 3,5 km/h (1 Bft) S 181 0 min 0,000 mm 0,0 UV-I 0 W/m -0,6 C 0,0 C 4,8 km/h (1 Bft) 95,24 %
11.12.2016 01:56 0,2 C 95 % 1022,0 hPa 0,0 l/m 3,4 km/h (1 Bft) S 181 0 min 0,000 mm 0,0 UV-I 0 W/m -0,5 C 0,2 C 4,8 km/h (1 Bft) 97,87 %
11.12.2016 01:58 0,3 C 95 % 1021,9 hPa 0,0 l/m 3,2 km/h (1 Bft) S 181 0 min 0,000 mm 0,0 UV-I 0 W/m -0,4 C 0,3 C 4,8 km/h (1 Bft) 98,11 %
11.12.2016 02:00 0,3 C 95 % 1021,9 hPa 0,0 l/m 2,5 km/h (1 Bft) S 181 0 min 0,000 mm 0,0 UV-I 0 W/m -0,4 C 0,3 C 4,8 km/h (1 Bft) 100,00 %
11.12.2016 02:02 0,4 C 94 % 1021,9 hPa 0,0 l/m 3,0 km/h (1 Bft) S 181 0 min 0,000 mm 0,0 UV-I 0 W/m -0,5 C 0,4 C 4,8 km/h (1 Bft) 100,00 %
11.12.2016 02:04 0,4 C 94 % 1021,9 hPa 0,0 l/m 2,6 km/h (1 Bft) S 181 0 min 0,000 mm 0,0 UV-I 0 W/m -0,5 C 0,4 C 4,8 km/h (1 Bft) 100,00 %
11.12.2016 02:06 0,3 C 94 % 1021,9 hPa 0,0 l/m 2,3 km/h (1 Bft) S 181 0 min 0,000 mm 0,0 UV-I 0 W/m -0,5 C 0,3 C 4,8 km/h (1 Bft) 100,00 %
11.12.2016 02:08 0,3 C 94 % 1021,8 hPa 0,0 l/m 3,4 km/h (1 Bft) S 181 0 min 0,000 mm 0,0 UV-I 0 W/m -0,5 C 0,3 C 4,8 km/h (1 Bft) 100,00 %
11.12.2016 02:10 0,4 C 94 % 1021,8 hPa 0,0 l/m 3,7 km/h (1 Bft) S 181 0 min 0,000 mm 0,0 UV-I 0 W/m -0,5 C 0,4 C 4,8 km/h (1 Bft) 98,21 %
11.12.2016 02:12 0,3 C 94 % 1021,8 hPa 0,0 l/m 3,7 km/h (1 Bft) S 181 0 min 0,000 mm 0,0 UV-I 0 W/m -0,5 C 0,3 C 6,4 km/h (2 Bft) 100,00 %
11.12.2016 02:14 0,3 C 94 % 1021,7 hPa 0,0 l/m 4,8 km/h (1 Bft) S 186 0 min 0,000 mm 0,0 UV-I 0 W/m -0,5 C 0,3 C 8,0 km/h (2 Bft) 100,00 %
11.12.2016 02:16 0,3 C 93 % 1021,7 hPa 0,0 l/m 3,7 km/h (1 Bft) S 186 0 min 0,000 mm 0,0 UV-I 0 W/m -0,7 C 0,3 C 4,8 km/h (1 Bft) 100,00 %
11.12.2016 02:18 0,2 C 93 % 1021,6 hPa 0,0 l/m 3,7 km/h (1 Bft) S 186 0 min 0,000 mm 0,0 UV-I 0 W/m -0,8 C 0,2 C 4,8 km/h (1 Bft) 98,11 %
11.12.2016 02:20 0,2 C 94 % 1021,6 hPa 0,0 l/m 2,7 km/h (1 Bft) S 186 0 min 0,000 mm 0,0 UV-I 0 W/m -0,6 C 0,2 C 4,8 km/h (1 Bft) 100,00 %
11.12.2016 02:22 0,1 C 93 % 1021,5 hPa 0,0 l/m 2,8 km/h (1 Bft) S 186 0 min 0,000 mm 0,0 UV-I 0 W/m -0,9 C 0,1 C 3,2 km/h (1 Bft) 100,00 %
11.12.2016 02:24 0,1 C 93 % 1021,5 hPa 0,0 l/m 2,6 km/h (1 Bft) S 186 0 min 0,000 mm 0,0 UV-I 0 W/m -0,9 C 0,1 C 3,2 km/h (1 Bft) 100,00 %
11.12.2016 02:26 -0,1 C 93 % 1021,5 hPa 0,0 l/m 2,3 km/h (1 Bft) S 186 0 min 0,000 mm 0,0 UV-I 0 W/m -1,1 C -0,1 C 3,2 km/h (1 Bft) 100,00 %
11.12.2016 02:28 -0,2 C 93 % 1021,5 hPa 0,0 l/m 2,7 km/h (1 Bft) S 186 0 min 0,000 mm 0,0 UV-I 0 W/m -1,2 C -0,2 C 3,2 km/h (1 Bft) 97,87 %
11.12.2016 02:30 -0,3 C 93 % 1021,4 hPa 0,0 l/m 2,4 km/h (1 Bft) S 186 0 min 0,000 mm 0,0 UV-I 0 W/m -1,3 C -0,3 C 3,2 km/h (1 Bft) 100,00 %
11.12.2016 02:32 -0,4 C 94 % 1021,4 hPa 0,0 l/m 2,0 km/h (1 Bft) S 186 0 min 0,000 mm 0,0 UV-I 0 W/m -1,2 C -0,4 C 3,2 km/h (1 Bft) 98,00 %
11.12.2016 02:34 -0,5 C 94 % 1021,4 hPa 0,0 l/m 1,7 km/h (1 Bft) S 186 0 min 0,000 mm 0,0 UV-I 0 W/m -1,3 C -0,5 C 3,2 km/h (1 Bft) 100,00 %
11.12.2016 02:36 -0,5 C 94 % 1021,3 hPa 0,0 l/m 1,6 km/h (1 Bft) S 186 0 min 0,000 mm 0,0 UV-I 0 W/m -1,3 C -0,5 C 3,2 km/h (1 Bft) 100,00 %
11.12.2016 02:38 -0,5 C 94 % 1021,3 hPa 0,0 l/m 1,9 km/h (1 Bft) S 186 0 min 0,000 mm 0,0 UV-I 0 W/m -1,3 C -0,5 C 3,2 km/h (1 Bft) 98,00 %
11.12.2016 02:40 -0,4 C 94 % 1021,3 hPa 0,0 l/m 2,4 km/h (1 Bft) S 186 0 min 0,000 mm 0,0 UV-I 0 W/m -1,2 C -0,4 C 3,2 km/h (1 Bft) 100,00 %
11.12.2016 02:42 -0,4 C 94 % 1021,3 hPa 0,0 l/m 2,5 km/h (1 Bft) S 186 0 min 0,000 mm 0,0 UV-I 0 W/m -1,2 C -0,4 C 3,2 km/h (1 Bft) 100,00 %
11.12.2016 02:44 -0,4 C 94 % 1021,2 hPa 0,0 l/m 2,2 km/h (1 Bft) S 186 0 min 0,000 mm 0,0 UV-I 0 W/m -1,2 C -0,4 C 3,2 km/h (1 Bft) 98,11 %
11.12.2016 02:46 -0,4 C 94 % 1021,2 hPa 0,0 l/m 3,6 km/h (1 Bft) S 186 0 min 0,000 mm 0,0 UV-I 0 W/m -1,2 C -0,4 C 4,8 km/h (1 Bft) 98,15 %
11.12.2016 02:48 -0,4 C 94 % 1021,2 hPa 0,0 l/m 3,8 km/h (1 Bft) S 186 0 min 0,000 mm 0,0 UV-I 0 W/m -1,2 C -0,4 C 4,8 km/h (1 Bft) 100,00 %
11.12.2016 02:50 -0,5 C 94 % 1021,1 hPa 0,0 l/m 2,9 km/h (1 Bft) S 186 0 min 0,000 mm 0,0 UV-I 0 W/m -1,3 C -0,5 C 4,8 km/h (1 Bft) 95,12 %
11.12.2016 02:52 -0,7 C 94 % 1021,2 hPa 0,0 l/m 2,7 km/h (1 Bft) S 186 0 min 0,000 mm 0,0 UV-I 0 W/m -1,5 C -0,7 C 4,8 km/h (1 Bft) 100,00 %
11.12.2016 02:54 -0,9 C 94 % 1021,1 hPa 0,0 l/m 2,4 km/h (1 Bft) S 186 0 min 0,000 mm 0,0 UV-I 0 W/m -1,7 C -0,9 C 3,2 km/h (1 Bft) 100,00 %
11.12.2016 02:56 -0,9 C 94 % 1021,0 hPa 0,0 l/m 2,8 km/h (1 Bft) S 186 0 min 0,000 mm 0,0 UV-I 0 W/m -1,7 C -0,9 C 3,2 km/h (1 Bft) 100,00 %
11.12.2016 02:58 -0,9 C 95 % 1020,9 hPa 0,0 l/m 2,4 km/h (1 Bft) S 186 0 min 0,000 mm 0,0 UV-I 0 W/m -1,6 C -0,9 C 3,2 km/h (1 Bft) 100,00 %
11.12.2016 03:00 -0,8 C 95 % 1020,9 hPa 0,0 l/m 1,9 km/h (1 Bft) S 186 0 min 0,000 mm 0,0 UV-I 0 W/m -1,5 C -0,8 C 3,2 km/h (1 Bft) 100,00 %
11.12.2016 03:02 -0,9 C 95 % 1020,9 hPa 0,0 l/m 1,2 km/h (1 Bft) S 186 0 min 0,000 mm 0,0 UV-I 0 W/m -1,6 C -0,9 C 3,2 km/h (1 Bft) 100,00 %
11.12.2016 03:04 -0,9 C 95 % 1020,9 hPa 0,0 l/m 2,0 km/h (1 Bft) S 186 0 min 0,000 mm 0,0 UV-I 0 W/m -1,6 C -0,9 C 4,8 km/h (1 Bft) 98,00 %
11.12.2016 03:06 -0,8 C 95 % 1020,9 hPa 0,0 l/m 2,8 km/h (1 Bft) S 186 0 min 0,000 mm 0,0 UV-I 0 W/m -1,5 C -0,8 C 4,8 km/h (1 Bft) 100,00 %
11.12.2016 03:08 -0,9 C 94 % 1020,8 hPa 0,0 l/m 3,2 km/h (1 Bft) S 186 0 min 0,000 mm 0,0 UV-I 0 W/m -1,7 C -0,9 C 4,8 km/h (1 Bft) 98,00 %
11.12.2016 03:10 -0,9 C 95 % 1020,8 hPa 0,0 l/m 2,4 km/h (1 Bft) S 186 0 min 0,000 mm 0,0 UV-I 0 W/m -1,6 C -0,9 C 3,2 km/h (1 Bft) 95,74 %
11.12.2016 03:12 -0,9 C 95 % 1020,8 hPa 0,0 l/m 2,6 km/h (1 Bft) S 186 0 min 0,000 mm 0,0 UV-I 0 W/m -1,6 C -0,9 C 3,2 km/h (1 Bft) 100,00 %
11.12.2016 03:14 -0,9 C 95 % 1020,7 hPa 0,0 l/m 3,2 km/h (1 Bft) S 186 0 min 0,000 mm 0,0 UV-I 0 W/m -1,6 C -0,9 C 4,8 km/h (1 Bft) 97,87 %
11.12.2016 03:16 -0,9 C 95 % 1020,7 hPa 0,0 l/m 2,4 km/h (1 Bft) S 186 0 min 0,000 mm 0,0 UV-I 0 W/m -1,6 C -0,9 C 3,2 km/h (1 Bft) 100,00 %
11.12.2016 03:19 -1,1 C 95 % 1020,8 hPa 0,0 l/m 3,0 km/h (1 Bft) S 186 0 min 0,000 mm 0,0 UV-I 0 W/m -1,8 C -1,1 C 4,8 km/h (1 Bft) 100,00 %
11.12.2016 03:20 -1,1 C 95 % 1020,7 hPa 0,0 l/m 3,4 km/h (1 Bft) S 186 0 min 0,000 mm 0,0 UV-I 0 W/m -1,8 C -1,1 C 4,8 km/h (1 Bft) 100,00 %
11.12.2016 03:22 -1,0 C 95 % 1020,7 hPa 0,0 l/m 3,3 km/h (1 Bft) S 186 0 min 0,000 mm 0,0 UV-I 0 W/m -1,7 C -1,0 C 4,8 km/h (1 Bft) 100,00 %
11.12.2016 03:24 -0,9 C 95 % 1020,7 hPa 0,0 l/m 3,7 km/h (1 Bft) S 186 0 min 0,000 mm 0,0 UV-I 0 W/m -1,6 C -0,9 C 4,8 km/h (1 Bft) 100,00 %
11.12.2016 03:26 -0,8 C 95 % 1020,7 hPa 0,0 l/m 3,3 km/h (1 Bft) S 186 0 min 0,000 mm 0,0 UV-I 0 W/m -1,5 C -0,8 C 4,8 km/h (1 Bft) 100,00 %
11.12.2016 03:28 -0,8 C 95 % 1020,7 hPa 0,0 l/m 2,8 km/h (1 Bft) S 186 0 min 0,000 mm 0,0 UV-I 0 W/m -1,5 C -0,8 C 3,2 km/h (1 Bft) 100,00 %
11.12.2016 03:30 -0,9 C 95 % 1020,6 hPa 0,0 l/m 2,9 km/h (1 Bft) S 186 0 min 0,000 mm 0,0 UV-I 0 W/m -1,6 C -0,9 C 3,2 km/h (1 Bft) 100,00 %
11.12.2016 03:32 -0,9 C 95 % 1020,6 hPa 0,0 l/m 3,1 km/h (1 Bft) S 186 0 min 0,000 mm 0,0 UV-I 0 W/m -1,6 C -0,9 C 4,8 km/h (1 Bft) 97,37 %
11.12.2016 03:34 -0,8 C 95 % 1020,6 hPa 0,0 l/m 3,4 km/h (1 Bft) S 186 0 min 0,000 mm 0,0 UV-I 0 W/m -1,5 C -0,8 C 4,8 km/h (1 Bft) 98,00 %
11.12.2016 03:36 -0,8 C 95 % 1020,6 hPa 0,0 l/m 3,5 km/h (1 Bft) S 186 0 min 0,000 mm 0,0 UV-I 0 W/m -1,5 C -0,8 C 4,8 km/h (1 Bft) 100,00 %
11.12.2016 03:38 -0,9 C 95 % 1020,6 hPa 0,0 l/m 2,1 km/h (1 Bft) S 186 0 min 0,000 mm 0,0 UV-I 0 W/m -1,6 C -0,9 C 3,2 km/h (1 Bft) 100,00 %
11.12.2016 03:40 -1,1 C 95 % 1020,5 hPa 0,0 l/m 2,5 km/h (1 Bft) S 186 0 min 0,000 mm 0,0 UV-I 0 W/m -1,8 C -1,1 C 3,2 km/h (1 Bft) 100,00 %
11.12.2016 03:42 -1,2 C 95 % 1020,6 hPa 0,0 l/m 2,7 km/h (1 Bft) S 186 0 min 0,000 mm 0,0 UV-I 0 W/m -1,9 C -1,2 C 3,2 km/h (1 Bft) 100,00 %
11.12.2016 03:44 -1,2 C 95 % 1020,6 hPa 0,0 l/m 0,8 km/h (0 Bft) S 186 0 min 0,000 mm 0,0 UV-I 0 W/m -1,9 C -1,2 C 3,2 km/h (1 Bft) 100,00 %
11.12.2016 03:46 -1,2 C 95 % 1020,6 hPa 0,0 l/m 1,0 km/h (0 Bft) S 186 0 min 0,000 mm 0,0 UV-I 0 W/m -1,9 C -1,2 C 1,6 km/h (1 Bft) 100,00 %
11.12.2016 03:48 -1,3 C 95 % 1020,6 hPa 0,0 l/m 1,2 km/h (1 Bft) S 186 0 min 0,000 mm 0,0 UV-I 0 W/m -2,0 C -1,3 C 3,2 km/h (1 Bft) 97,37 %
11.12.2016 03:50 -1,3 C 95 % 1020,6 hPa 0,0 l/m 2,3 km/h (1 Bft) S 186 0 min 0,000 mm 0,0 UV-I 0 W/m -2,0 C -1,3 C 3,2 km/h (1 Bft) 96,00 %
11.12.2016 03:52 -1,2 C 95 % 1020,6 hPa 0,0 l/m 2,6 km/h (1 Bft) S 186 0 min 0,000 mm 0,0 UV-I 0 W/m -1,9 C -1,2 C 3,2 km/h (1 Bft) 97,87 %
11.12.2016 03:54 -1,2 C 96 % 1020,6 hPa 0,0 l/m 2,9 km/h (1 Bft) S 186 0 min 0,000 mm 0,0 UV-I 0 W/m -1,8 C -1,2 C 3,2 km/h (1 Bft) 97,92 %
11.12.2016 03:56 -1,1 C 95 % 1020,5 hPa 0,0 l/m 2,7 km/h (1 Bft) S 186 0 min 0,000 mm 0,0 UV-I 0 W/m -1,8 C -1,1 C 3,2 km/h (1 Bft) 96,00 %
11.12.2016 03:58 -1,1 C 95 % 1020,5 hPa 0,0 l/m 2,0 km/h (1 Bft) S 186 0 min 0,000 mm 0,0 UV-I 0 W/m -1,8 C -1,1 C 3,2 km/h (1 Bft) 97,87 %
11.12.2016 04:00 -1,1 C 96 % 1020,5 hPa 0,0 l/m 1,8 km/h (1 Bft) S 186 0 min 0,000 mm 0,0 UV-I 0 W/m -1,7 C -1,1 C 3,2 km/h (1 Bft) 97,37 %
11.12.2016 04:02 -1,1 C 95 % 1020,4 hPa 0,0 l/m 1,3 km/h (1 Bft) S 186 0 min 0,000 mm 0,0 UV-I 0 W/m -1,8 C -1,1 C 3,2 km/h (1 Bft) 100,00 %
11.12.2016 04:04 -1,1 C 95 % 1020,4 hPa 0,0 l/m 1,9 km/h (1 Bft) S 186 0 min 0,000 mm 0,0 UV-I 0 W/m -1,8 C -1,1 C 3,2 km/h (1 Bft) 97,56 %
11.12.2016 04:06 -1,1 C 95 % 1020,4 hPa 0,0 l/m 2,1 km/h (1 Bft) S 186 0 min 0,000 mm 0,0 UV-I 0 W/m -1,8 C -1,1 C 3,2 km/h (1 Bft) 96,00 %
11.12.2016 04:08 -1,1 C 95 % 1020,5 hPa 0,0 l/m 1,9 km/h (1 Bft) S 186 0 min 0,000 mm 0,0 UV-I 0 W/m -1,8 C -1,1 C 3,2 km/h (1 Bft) 95,74 %
11.12.2016 04:10 -1,2 C 95 % 1020,4 hPa 0,0 l/m 2,3 km/h (1 Bft) S 186 0 min 0,000 mm 0,0 UV-I 0 W/m -1,9 C -1,2 C 3,2 km/h (1 Bft) 96,23 %
11.12.2016 04:12 -1,2 C 96 % 1020,4 hPa 0,0 l/m 2,6 km/h (1 Bft) S 186 0 min 0,000 mm 0,0 UV-I 0 W/m -1,8 C -1,2 C 4,8 km/h (1 Bft) 98,00 %
11.12.2016 04:14 -1,2 C 96 % 1020,4 hPa 0,0 l/m 1,9 km/h (1 Bft) S 186 0 min 0,000 mm 0,0 UV-I 0 W/m -1,8 C -1,2 C 4,8 km/h (1 Bft) 97,87 %
11.12.2016 04:16 -1,2 C 96 % 1020,4 hPa 0,0 l/m 1,2 km/h (1 Bft) S 186 0 min 0,000 mm 0,0 UV-I 0 W/m -1,8 C -1,2 C 4,8 km/h (1 Bft) 97,14 %
11.12.2016 04:18 -1,3 C 95 % 1020,4 hPa 0,0 l/m 1,2 km/h (1 Bft) S 186 0 min 0,000 mm 0,0 UV-I 0 W/m -2,0 C -1,3 C 3,2 km/h (1 Bft) 96,00 %
11.12.2016 04:20 -1,4 C 95 % 1020,3 hPa 0,0 l/m 1,9 km/h (1 Bft) S 186 0 min 0,000 mm 0,0 UV-I 0 W/m -2,1 C -1,4 C 4,8 km/h (1 Bft) 96,23 %
11.12.2016 04:22 -1,5 C 95 % 1020,3 hPa 0,0 l/m 2,7 km/h (1 Bft) S 186 0 min 0,000 mm 0,0 UV-I 0 W/m -2,2 C -1,5 C 4,8 km/h (1 Bft) 100,00 %
11.12.2016 04:24 -1,6 C 95 % 1020,3 hPa 0,0 l/m 1,5 km/h (1 Bft) S 186 0 min 0,000 mm 0,0 UV-I 0 W/m -2,3 C -1,6 C 3,2 km/h (1 Bft) 94,00 %
11.12.2016 04:26 -1,6 C 95 % 1020,3 hPa 0,0 l/m 0,0 km/h (0 Bft) S 186 0 min 0,000 mm 0,0 UV-I 0 W/m -2,3 C -1,6 C 0,0 km/h (0 Bft) 98,00 %
11.12.2016 04:28 -1,6 C 96 % 1020,3 hPa 0,0 l/m 1,8 km/h (1 Bft) S 186 0 min 0,000 mm 0,0 UV-I 0 W/m -2,2 C -1,6 C 3,2 km/h (1 Bft) 97,87 %
11.12.2016 04:30 -1,5 C 96 % 1020,3 hPa 0,0 l/m 2,3 km/h (1 Bft) S 186 0 min 0,000 mm 0,0 UV-I 0 W/m -2,1 C -1,5 C 3,2 km/h (1 Bft) 95,74 %
11.12.2016 04:32 -1,4 C 96 % 1020,3 hPa 0,0 l/m 2,1 km/h (1 Bft) S 186 0 min 0,000 mm 0,0 UV-I 0 W/m -2,0 C -1,4 C 3,2 km/h (1 Bft) 97,62 %
11.12.2016 04:34 -1,6 C 95 % 1020,3 hPa 0,0 l/m 2,1 km/h (1 Bft) S 186 0 min 0,000 mm 0,0 UV-I 0 W/m -2,3 C -1,6 C 3,2 km/h (1 Bft) 97,92 %
11.12.2016 04:36 -1,6 C 95 % 1020,3 hPa 0,0 l/m 1,9 km/h (1 Bft) S 186 0 min 0,000 mm 0,0 UV-I 0 W/m -2,3 C -1,6 C 4,8 km/h (1 Bft) 100,00 %
11.12.2016 04:38 -1,7 C 95 % 1020,3 hPa 0,0 l/m 2,3 km/h (1 Bft) S 186 0 min 0,000 mm 0,0 UV-I 0 W/m -2,4 C -1,7 C 3,2 km/h (1 Bft) 100,00 %
11.12.2016 04:40 -1,7 C 96 % 1020,3 hPa 0,0 l/m 2,8 km/h (1 Bft) S 186 0 min 0,000 mm 0,0 UV-I 0 W/m -2,3 C -1,7 C 4,8 km/h (1 Bft) 98,00 %
11.12.2016 04:42 -1,6 C 96 % 1020,3 hPa 0,0 l/m 2,6 km/h (1 Bft) S 186 0 min 0,000 mm 0,0 UV-I 0 W/m -2,2 C -1,6 C 4,8 km/h (1 Bft) 100,00 %
11.12.2016 04:44 -1,6 C 96 % 1020,3 hPa 0,0 l/m 3,3 km/h (1 Bft) S 186 0 min 0,000 mm 0,0 UV-I 0 W/m -2,2 C -1,6 C 4,8 km/h (1 Bft) 100,00 %
11.12.2016 04:46 -1,6 C 96 % 1020,3 hPa 0,0 l/m 3,9 km/h (1 Bft) S 186 0 min 0,000 mm 0,0 UV-I 0 W/m -2,2 C -1,6 C 4,8 km/h (1 Bft) 100,00 %
11.12.2016 04:48 -1,6 C 96 % 1020,1 hPa 0,0 l/m 1,9 km/h (1 Bft) S 186 0 min 0,000 mm 0,0 UV-I 0 W/m -2,2 C -1,6 C 4,8 km/h (1 Bft) 100,00 %
11.12.2016 04:50 -1,6 C 96 % 1020,1 hPa 0,0 l/m 2,2 km/h (1 Bft) S 186 0 min 0,000 mm 0,0 UV-I 0 W/m -2,2 C -1,6 C 3,2 km/h (1 Bft) 100,00 %
11.12.2016 04:52 -1,6 C 96 % 1020,1 hPa 0,0 l/m 3,0 km/h (1 Bft) S 186 0 min 0,000 mm 0,0 UV-I 0 W/m -2,2 C -1,6 C 4,8 km/h (1 Bft) 98,00 %
11.12.2016 04:54 -1,6 C 96 % 1020,1 hPa 0,0 l/m 3,2 km/h (1 Bft) S 186 0 min 0,000 mm 0,0 UV-I 0 W/m -2,2 C -1,6 C 6,4 km/h (2 Bft) 100,00 %
11.12.2016 04:56 -1,6 C 96 % 1020,0 hPa 0,0 l/m 3,7 km/h (1 Bft) S-SW 200 0 min 0,000 mm 0,0 UV-I 0 W/m -2,2 C -1,6 C 6,4 km/h (2 Bft) 100,00 %
11.12.2016 04:58 -1,6 C 96 % 1020,0 hPa 0,0 l/m 3,1 km/h (1 Bft) S-SW 207 0 min 0,000 mm 0,0 UV-I 0 W/m -2,2 C -1,6 C 6,4 km/h (2 Bft) 100,00 %
11.12.2016 05:00 -1,5 C 96 % 1020,0 hPa 0,0 l/m 2,4 km/h (1 Bft) S-SW 205 0 min 0,000 mm 0,0 UV-I 0 W/m -2,1 C -1,5 C 4,8 km/h (1 Bft) 97,87 %
11.12.2016 05:02 -1,4 C 96 % 1019,9 hPa 0,0 l/m 4,2 km/h (1 Bft) S-SW 205 0 min 0,000 mm 0,0 UV-I 0 W/m -2,0 C -1,4 C 6,4 km/h (2 Bft) 100,00 %
11.12.2016 05:04 -1,4 C 96 % 1020,0 hPa 0,0 l/m 5,7 km/h (1 Bft) SW 219 0 min 0,000 mm 0,0 UV-I 0 W/m -2,0 C -1,4 C 9,7 km/h (2 Bft) 100,00 %
11.12.2016 05:06 -1,3 C 96 % 1019,9 hPa 0,0 l/m 4,8 km/h (1 Bft) SW 219 0 min 0,000 mm 0,0 UV-I 0 W/m -1,9 C -1,3 C 6,4 km/h (2 Bft) 100,00 %
11.12.2016 05:08 -1,3 C 96 % 1019,9 hPa 0,0 l/m 4,5 km/h (1 Bft) SW 219 0 min 0,000 mm 0,0 UV-I 0 W/m -1,9 C -1,3 C 6,4 km/h (2 Bft) 100,00 %
11.12.2016 05:10 -1,3 C 96 % 1020,0 hPa 0,0 l/m 4,4 km/h (1 Bft) SW 219 0 min 0,000 mm 0,0 UV-I 0 W/m -1,9 C -1,3 C 6,4 km/h (2 Bft) 98,11 %
11.12.2016 05:12 -1,4 C 96 % 1020,0 hPa 0,0 l/m 4,1 km/h (1 Bft) SW 219 0 min 0,000 mm 0,0 UV-I 0 W/m -2,0 C -1,4 C 4,8 km/h (1 Bft) 100,00 %
11.12.2016 05:14 -1,4 C 95 % 1020,0 hPa 0,0 l/m 4,2 km/h (1 Bft) SW 219 0 min 0,000 mm 0,0 UV-I 0 W/m -2,1 C -1,4 C 6,4 km/h (2 Bft) 100,00 %
11.12.2016 05:16 -1,4 C 95 % 1020,0 hPa 0,0 l/m 4,9 km/h (1 Bft) SW 219 0 min 0,000 mm 0,0 UV-I 0 W/m -2,1 C -1,4 C 8,0 km/h (2 Bft) 100,00 %
11.12.2016 05:18 -1,5 C 96 % 1020,0 hPa 0,0 l/m 4,4 km/h (1 Bft) SW 219 0 min 0,000 mm 0,0 UV-I 0 W/m -2,1 C -1,5 C 6,4 km/h (2 Bft) 100,00 %
11.12.2016 05:20 -1,6 C 96 % 1020,0 hPa 0,0 l/m 5,3 km/h (1 Bft) S-SW 212 0 min 0,000 mm 0,0 UV-I 0 W/m -2,2 C -1,6 C 8,0 km/h (2 Bft) 94,29 %
11.12.2016 05:22 -1,6 C 96 % 1020,0 hPa 0,0 l/m 4,3 km/h (1 Bft) S-SW 212 0 min 0,000 mm 0,0 UV-I 0 W/m -2,2 C -1,6 C 8,0 km/h (2 Bft) 100,00 %
11.12.2016 05:24 -1,6 C 96 % 1020,0 hPa 0,0 l/m 3,3 km/h (1 Bft) S-SW 213 0 min 0,000 mm 0,0 UV-I 0 W/m -2,2 C -1,6 C 6,4 km/h (2 Bft) 100,00 %
11.12.2016 05:26 -1,6 C 96 % 1020,0 hPa 0,0 l/m 4,1 km/h (1 Bft) S 191 0 min 0,000 mm 0,0 UV-I 0 W/m -2,2 C -1,6 C 9,7 km/h (2 Bft) 100,00 %
11.12.2016 05:28 -1,6 C 96 % 1020,0 hPa 0,0 l/m 4,4 km/h (1 Bft) S-SW 199 0 min 0,000 mm 0,0 UV-I 0 W/m -2,2 C -1,6 C 8,0 km/h (2 Bft) 97,87 %
11.12.2016 05:30 -1,5 C 96 % 1020,0 hPa 0,0 l/m 5,2 km/h (1 Bft) SW 221 0 min 0,000 mm 0,0 UV-I 0 W/m -2,1 C -1,5 C 9,7 km/h (2 Bft) 100,00 %
11.12.2016 05:32 -1,4 C 96 % 1020,0 hPa 0,0 l/m 3,0 km/h (1 Bft) SW 219 0 min 0,000 mm 0,0 UV-I 0 W/m -2,0 C -1,4 C 6,4 km/h (2 Bft) 100,00 %
11.12.2016 05:34 -1,3 C 96 % 1020,0 hPa 0,0 l/m 3,7 km/h (1 Bft) S-SW 212 0 min 0,000 mm 0,0 UV-I 0 W/m -1,9 C -1,3 C 6,4 km/h (2 Bft) 98,00 %
11.12.2016 05:36 -1,4 C 95 % 1020,0 hPa 0,0 l/m 3,7 km/h (1 Bft) S 186 0 min 0,000 mm 0,0 UV-I 0 W/m -2,1 C -1,4 C 6,4 km/h (2 Bft) 100,00 %
11.12.2016 05:38 -1,4 C 95 % 1019,9 hPa 0,0 l/m 4,4 km/h (1 Bft) S-SW 211 0 min 0,000 mm 0,0 UV-I 0 W/m -2,1 C -1,4 C 8,0 km/h (2 Bft) 100,00 %
11.12.2016 05:40 -1,4 C 95 % 1020,0 hPa 0,0 l/m 4,6 km/h (1 Bft) S-SW 192 0 min 0,000 mm 0,0 UV-I 0 W/m -2,1 C -1,4 C 9,7 km/h (2 Bft) 100,00 %
11.12.2016 05:42 -1,3 C 96 % 1020,0 hPa 0,0 l/m 4,1 km/h (1 Bft) S 190 0 min 0,000 mm 0,0 UV-I 0 W/m -1,9 C -1,3 C 6,4 km/h (2 Bft) 100,00 %
11.12.2016 05:44 -1,3 C 96 % 1020,0 hPa 0,0 l/m 4,7 km/h (1 Bft) S-SW 194 0 min 0,000 mm 0,0 UV-I 0 W/m -1,9 C -1,3 C 8,0 km/h (2 Bft) 100,00 %
11.12.2016 05:46 -1,2 C 95 % 1020,0 hPa 0,0 l/m 6,1 km/h (2 Bft) SW 214 0 min 0,000 mm 0,0 UV-I 0 W/m -1,9 C -1,2 C 8,0 km/h (2 Bft) 97,14 %
11.12.2016 05:48 -1,2 C 95 % 1020,0 hPa 0,0 l/m 6,4 km/h (2 Bft) S-SW 209 0 min 0,000 mm 0,0 UV-I 0 W/m -1,9 C -1,2 C 9,7 km/h (2 Bft) 100,00 %
11.12.2016 05:50 -1,2 C 95 % 1020,0 hPa 0,0 l/m 3,0 km/h (1 Bft) S-SW 210 0 min 0,000 mm 0,0 UV-I 0 W/m -1,9 C -1,2 C 6,4 km/h (2 Bft) 100,00 %
11.12.2016 05:52 -1,2 C 95 % 1020,1 hPa 0,0 l/m 5,6 km/h (1 Bft) S-SW 211 0 min 0,000 mm 0,0 UV-I 0 W/m -1,9 C -1,2 C 8,0 km/h (2 Bft) 100,00 %
11.12.2016 05:54 -1,3 C 95 % 1020,0 hPa 0,0 l/m 3,1 km/h (1 Bft) S-SW 211 0 min 0,000 mm 0,0 UV-I 0 W/m -2,0 C -1,3 C 4,8 km/h (1 Bft) 100,00 %
11.12.2016 05:56 -1,3 C 95 % 1020,0 hPa 0,0 l/m 3,6 km/h (1 Bft) S-SW 212 0 min 0,000 mm 0,0 UV-I 0 W/m -2,0 C -1,3 C 8,0 km/h (2 Bft) 100,00 %
11.12.2016 05:58 -1,3 C 94 % 1020,0 hPa 0,0 l/m 5,4 km/h (1 Bft) S-SW 199 0 min 0,000 mm 0,0 UV-I 0 W/m -2,1 C -1,3 C 8,0 km/h (2 Bft) 100,00 %
11.12.2016 06:00 -1,3 C 95 % 1020,0 hPa 0,0 l/m 5,3 km/h (1 Bft) SW 214 0 min 0,000 mm 0,0 UV-I 0 W/m -2,0 C -1,3 C 8,0 km/h (2 Bft) 100,00 %
11.12.2016 06:02 -1,3 C 95 % 1020,0 hPa 0,0 l/m 5,1 km/h (1 Bft) S-SW 212 0 min 0,000 mm 0,0 UV-I 0 W/m -2,0 C -1,3 C 9,7 km/h (2 Bft) 100,00 %
11.12.2016 06:04 -1,3 C 95 % 1019,9 hPa 0,0 l/m 4,4 km/h (1 Bft) S-SW 208 0 min 0,000 mm 0,0 UV-I 0 W/m -2,0 C -1,3 C 8,0 km/h (2 Bft) 97,37 %
11.12.2016 06:06 -1,2 C 95 % 1020,0 hPa 0,0 l/m 4,9 km/h (1 Bft) S-SW 205 0 min 0,000 mm 0,0 UV-I 0 W/m -1,9 C -1,2 C 8,0 km/h (2 Bft) 98,11 %
11.12.2016 06:08 -1,1 C 95 % 1020,0 hPa 0,0 l/m 6,3 km/h (2 Bft) SW 224 0 min 0,000 mm 0,0 UV-I 0 W/m -1,8 C -1,1 C 9,7 km/h (2 Bft) 100,00 %
11.12.2016 06:10 -1,1 C 94 % 1020,0 hPa 0,0 l/m 5,9 km/h (2 Bft) S-SW 211 0 min 0,000 mm 0,0 UV-I 0 W/m -1,9 C -1,1 C 8,0 km/h (2 Bft) 100,00 %
11.12.2016 06:12 -1,1 C 95 % 1019,9 hPa 0,0 l/m 7,4 km/h (2 Bft) S-SW 209 0 min 0,000 mm 0,0 UV-I 0 W/m -1,8 C -2,2 C 9,7 km/h (2 Bft) 97,37 %
11.12.2016 06:14 -1,0 C 94 % 1020,0 hPa 0,0 l/m 7,1 km/h (2 Bft) S-SW 212 0 min 0,000 mm 0,0 UV-I 0 W/m -1,8 C -1,7 C 9,7 km/h (2 Bft) 100,00 %
11.12.2016 06:16 -0,9 C 94 % 1020,0 hPa 0,0 l/m 5,8 km/h (2 Bft) SW 227 0 min 0,000 mm 0,0 UV-I 0 W/m -1,7 C -0,9 C 8,0 km/h (2 Bft) 100,00 %
11.12.2016 06:18 -0,9 C 94 % 1019,9 hPa 0,0 l/m 5,9 km/h (2 Bft) SW 227 0 min 0,000 mm 0,0 UV-I 0 W/m -1,7 C -0,9 C 8,0 km/h (2 Bft) 97,73 %
11.12.2016 06:20 -0,9 C 94 % 1020,0 hPa 0,0 l/m 5,6 km/h (1 Bft) SW 227 0 min 0,000 mm 0,0 UV-I 0 W/m -1,7 C -0,9 C 6,4 km/h (2 Bft) 96,23 %
11.12.2016 06:22 -1,0 C 94 % 1020,0 hPa 0,0 l/m 5,3 km/h (1 Bft) SW 227 0 min 0,000 mm 0,0 UV-I 0 W/m -1,8 C -1,0 C 8,0 km/h (2 Bft) 100,00 %
11.12.2016 06:24 -1,1 C 94 % 1020,0 hPa 0,0 l/m 5,3 km/h (1 Bft) SW 236 0 min 0,000 mm 0,0 UV-I 0 W/m -1,9 C -1,1 C 8,0 km/h (2 Bft) 91,49 %
11.12.2016 06:26 -1,1 C 94 % 1020,0 hPa 0,0 l/m 5,6 km/h (1 Bft) W-SW 243 0 min 0,000 mm 0,0 UV-I 0 W/m -1,9 C -1,1 C 8,0 km/h (2 Bft) 98,00 %
11.12.2016 06:28 -1,2 C 94 % 1020,1 hPa 0,0 l/m 4,7 km/h (1 Bft) SW 236 0 min 0,000 mm 0,0 UV-I 0 W/m -2,0 C -1,2 C 6,4 km/h (2 Bft) 98,11 %
11.12.2016 06:30 -1,2 C 94 % 1020,0 hPa 0,0 l/m 3,6 km/h (1 Bft) SW 236 0 min 0,000 mm 0,0 UV-I 0 W/m -2,0 C -1,2 C 4,8 km/h (1 Bft) 97,87 %
11.12.2016 06:32 -1,2 C 94 % 1020,1 hPa 0,0 l/m 3,8 km/h (1 Bft) SW 236 0 min 0,000 mm 0,0 UV-I 0 W/m -2,0 C -1,2 C 4,8 km/h (1 Bft) 97,44 %
11.12.2016 06:34 -1,3 C 94 % 1020,0 hPa 0,0 l/m 5,2 km/h (1 Bft) SW 224 0 min 0,000 mm 0,0 UV-I 0 W/m -2,1 C -1,3 C 8,0 km/h (2 Bft) 96,36 %
11.12.2016 06:36 -1,3 C 94 % 1020,0 hPa 0,0 l/m 5,6 km/h (1 Bft) W-SW 244 0 min 0,000 mm 0,0 UV-I 0 W/m -2,1 C -1,3 C 8,0 km/h (2 Bft) 97,44 %
11.12.2016 06:38 -1,3 C 94 % 1020,0 hPa 0,0 l/m 5,1 km/h (1 Bft) W-SW 252 0 min 0,000 mm 0,0 UV-I 0 W/m -2,1 C -1,3 C 6,4 km/h (2 Bft) 98,00 %
11.12.2016 06:40 -1,3 C 94 % 1020,0 hPa 0,0 l/m 5,7 km/h (1 Bft) W-SW 258 0 min 0,000 mm 0,0 UV-I 0 W/m -2,1 C -1,3 C 9,7 km/h (2 Bft) 93,62 %
11.12.2016 06:42 -1,2 C 94 % 1020,1 hPa 0,0 l/m 7,4 km/h (2 Bft) W 267 0 min 0,000 mm 0,0 UV-I 0 W/m -2,0 C -2,3 C 11,3 km/h (2 Bft) 97,73 %
11.12.2016 06:44 -1,2 C 94 % 1020,1 hPa 0,0 l/m 7,7 km/h (2 Bft) W-SW 258 0 min 0,000 mm 0,0 UV-I 0 W/m -2,0 C -2,6 C 11,3 km/h (2 Bft) 97,73 %
11.12.2016 06:46 -1,1 C 94 % 1020,2 hPa 0,0 l/m 8,5 km/h (2 Bft) W-SW 257 0 min 0,000 mm 0,0 UV-I 0 W/m -1,9 C -3,3 C 11,3 km/h (2 Bft) 98,00 %
11.12.2016 06:48 -1,1 C 94 % 1020,1 hPa 0,0 l/m 8,0 km/h (2 Bft) W-SW 256 0 min 0,000 mm 0,0 UV-I 0 W/m -1,9 C -2,8 C 11,3 km/h (2 Bft) 96,00 %
11.12.2016 06:50 -1,0 C 94 % 1020,2 hPa 0,0 l/m 8,5 km/h (2 Bft) W 269 0 min 0,000 mm 0,0 UV-I 0 W/m -1,8 C -3,2 C 11,3 km/h (2 Bft) 98,00 %
11.12.2016 06:52 -0,9 C 94 % 1020,2 hPa 0,0 l/m 9,4 km/h (2 Bft) W 273 0 min 0,000 mm 0,0 UV-I 0 W/m -1,7 C -3,9 C 12,9 km/h (3 Bft) 97,56 %
11.12.2016 06:54 -0,7 C 94 % 1020,1 hPa 0,0 l/m 7,5 km/h (2 Bft) W 271 0 min 0,000 mm 0,0 UV-I 0 W/m -1,5 C -1,9 C 12,9 km/h (3 Bft) 97,87 %
11.12.2016 06:56 -0,6 C 93 % 1020,1 hPa 0,0 l/m 7,8 km/h (2 Bft) W-SW 255 0 min 0,000 mm 0,0 UV-I 0 W/m -1,6 C -2,1 C 12,9 km/h (3 Bft) 97,73 %
11.12.2016 06:58 -0,4 C 93 % 1020,3 hPa 0,0 l/m 5,8 km/h (2 Bft) W-SW 238 0 min 0,000 mm 0,0 UV-I 0 W/m -1,4 C -0,4 C 8,0 km/h (2 Bft) 96,00 %
11.12.2016 07:00 -0,4 C 92 % 1020,3 hPa 0,0 l/m 5,9 km/h (2 Bft) SW 231 0 min 0,000 mm 0,0 UV-I 0 W/m -1,5 C -0,4 C 8,0 km/h (2 Bft) 97,87 %
11.12.2016 07:02 -0,5 C 91 % 1020,3 hPa 0,0 l/m 6,1 km/h (2 Bft) SW 225 0 min 0,000 mm 0,0 UV-I 0 W/m -1,8 C -0,5 C 8,0 km/h (2 Bft) 100,00 %
11.12.2016 07:04 -0,7 C 91 % 1020,4 hPa 0,0 l/m 5,5 km/h (1 Bft) SW 222 0 min 0,000 mm 0,0 UV-I 0 W/m -2,0 C -0,7 C 8,0 km/h (2 Bft) 97,73 %
11.12.2016 07:06 -0,8 C 91 % 1020,4 hPa 0,0 l/m 6,1 km/h (2 Bft) SW 217 0 min 0,000 mm 0,0 UV-I 0 W/m -2,1 C -0,8 C 8,0 km/h (2 Bft) 100,00 %
11.12.2016 07:08 -0,9 C 91 % 1020,5 hPa 0,0 l/m 5,7 km/h (1 Bft) W-SW 240 0 min 0,000 mm 0,0 UV-I 0 W/m -2,2 C -0,9 C 6,4 km/h (2 Bft) 100,00 %
11.12.2016 07:10 -1,0 C 92 % 1020,5 hPa 0,0 l/m 5,5 km/h (1 Bft) W-SW 251 0 min 0,000 mm 0,0 UV-I 0 W/m -2,1 C -1,0 C 8,0 km/h (2 Bft) 98,00 %
11.12.2016 07:12 -1,0 C 92 % 1020,5 hPa 0,0 l/m 6,6 km/h (2 Bft) W-SW 257 0 min 0,000 mm 0,0 UV-I 0 W/m -2,1 C -1,2 C 11,3 km/h (2 Bft) 100,00 %
11.12.2016 07:14 -1,0 C 92 % 1020,6 hPa 0,0 l/m 7,5 km/h (2 Bft) W 265 0 min 0,000 mm 0,0 UV-I 0 W/m -2,1 C -2,2 C 12,9 km/h (3 Bft) 98,18 %
11.12.2016 07:16 -0,9 C 92 % 1020,6 hPa 0,0 l/m 5,8 km/h (2 Bft) W 279 0 min 0,000 mm 0,0 UV-I 0 W/m -2,0 C -0,9 C 9,7 km/h (2 Bft) 97,22 %
11.12.2016 07:18 -0,9 C 92 % 1020,7 hPa 0,0 l/m 4,7 km/h (1 Bft) W-NW 286 0 min 0,000 mm 0,0 UV-I 0 W/m -2,0 C -0,9 C 6,4 km/h (2 Bft) 100,00 %
11.12.2016 07:20 -0,9 C 92 % 1020,7 hPa 0,0 l/m 3,5 km/h (1 Bft) W-NW 282 0 min 0,000 mm 0,0 UV-I 0 W/m -2,0 C -0,9 C 6,4 km/h (2 Bft) 98,21 %
11.12.2016 07:22 -0,9 C 92 % 1020,7 hPa 0,0 l/m 5,4 km/h (1 Bft) W 273 0 min 0,000 mm 0,0 UV-I 0 W/m -2,0 C -0,9 C 6,4 km/h (2 Bft) 100,00 %
11.12.2016 07:24 -0,9 C 92 % 1020,7 hPa 0,0 l/m 4,2 km/h (1 Bft) W 280 0 min 0,000 mm 0,0 UV-I 0 W/m -2,0 C -0,9 C 6,4 km/h (2 Bft) 97,87 %
11.12.2016 07:26 -0,8 C 92 % 1020,7 hPa 0,0 l/m 4,8 km/h (1 Bft) W 271 0 min 0,000 mm 0,0 UV-I 4 W/m -1,9 C -0,8 C 6,4 km/h (2 Bft) 100,00 %
11.12.2016 07:28 -0,9 C 92 % 1020,8 hPa 0,0 l/m 6,2 km/h (2 Bft) W 269 0 min 0,000 mm 0,0 UV-I 5 W/m -2,0 C -0,9 C 9,7 km/h (2 Bft) 95,12 %
11.12.2016 07:30 -0,8 C 92 % 1020,8 hPa 0,0 l/m 7,8 km/h (2 Bft) W 264 0 min 0,000 mm 0,0 UV-I 5 W/m -1,9 C -2,3 C 11,3 km/h (2 Bft) 100,00 %
11.12.2016 07:32 -0,8 C 92 % 1020,9 hPa 0,0 l/m 9,9 km/h (2 Bft) W 265 0 min 0,000 mm 0,0 UV-I 5 W/m -1,9 C -4,2 C 14,5 km/h (3 Bft) 100,00 %
11.12.2016 07:34 -0,7 C 92 % 1020,9 hPa 0,0 l/m 9,4 km/h (2 Bft) W 270 0 min 0,000 mm 0,0 UV-I 5 W/m -1,8 C -3,7 C 14,5 km/h (3 Bft) 100,00 %
11.12.2016 07:36 -0,7 C 92 % 1020,8 hPa 0,0 l/m 9,9 km/h (2 Bft) W-SW 242 0 min 0,000 mm 0,0 UV-I 5 W/m -1,8 C -4,1 C 16,1 km/h (3 Bft) 100,00 %
11.12.2016 07:38 -0,6 C 91 % 1020,9 hPa 0,0 l/m 12,2 km/h (2 Bft) W-SW 254 0 min 0,000 mm 0,0 UV-I 7 W/m -1,9 C -5,8 C 17,7 km/h (3 Bft) 100,00 %
11.12.2016 07:40 -0,5 C 91 % 1020,9 hPa 0,0 l/m 12,6 km/h (3 Bft) W 261 0 min 0,000 mm 0,0 UV-I 7 W/m -1,8 C -6,0 C 17,7 km/h (3 Bft) 100,00 %
11.12.2016 07:42 -0,3 C 91 % 1020,8 hPa 0,0 l/m 10,0 km/h (2 Bft) W-SW 258 0 min 0,000 mm 0,0 UV-I 7 W/m -1,6 C -3,8 C 12,9 km/h (3 Bft) 100,00 %
11.12.2016 07:44 -0,3 C 90 % 1020,8 hPa 0,0 l/m 10,3 km/h (2 Bft) W-SW 258 0 min 0,000 mm 0,0 UV-I 8 W/m -1,7 C -4,0 C 14,5 km/h (3 Bft) 100,00 %
11.12.2016 07:46 -0,2 C 90 % 1020,8 hPa 0,0 l/m 7,0 km/h (2 Bft) W-SW 246 0 min 0,000 mm 0,0 UV-I 9 W/m -1,6 C -0,8 C 11,3 km/h (2 Bft) 97,62 %
11.12.2016 07:48 -0,1 C 89 % 1020,8 hPa 0,0 l/m 7,9 km/h (2 Bft) W-SW 252 0 min 0,000 mm 0,0 UV-I 10 W/m -1,7 C -1,7 C 11,3 km/h (2 Bft) 100,00 %
11.12.2016 07:50 -0,1 C 89 % 1020,9 hPa 0,0 l/m 6,8 km/h (2 Bft) W-SW 237 0 min 0,000 mm 0,0 UV-I 11 W/m -1,7 C -0,5 C 9,7 km/h (2 Bft) 98,11 %
11.12.2016 07:52 -0,1 C 89 % 1020,8 hPa 0,0 l/m 7,6 km/h (2 Bft) SW 225 0 min 0,000 mm 0,0 UV-I 12 W/m -1,7 C -1,4 C 9,7 km/h (2 Bft) 100,00 %
11.12.2016 07:54 -0,2 C 88 % 1020,8 hPa 0,0 l/m 9,2 km/h (2 Bft) W-SW 239 0 min 0,000 mm 0,0 UV-I 14 W/m -1,9 C -3,0 C 12,9 km/h (3 Bft) 100,00 %
11.12.2016 07:56 -0,2 C 88 % 1020,8 hPa 0,0 l/m 8,3 km/h (2 Bft) S-SW 208 0 min 0,000 mm 0,0 UV-I 16 W/m -1,9 C -2,1 C 12,9 km/h (3 Bft) 98,00 %
11.12.2016 07:58 -0,2 C 88 % 1020,8 hPa 0,0 l/m 8,8 km/h (2 Bft) SW 223 2 min 0,000 mm 0,0 UV-I 17 W/m -1,9 C -2,6 C 12,9 km/h (3 Bft) 100,00 %
11.12.2016 08:00 -0,2 C 89 % 1020,8 hPa 0,0 l/m 6,9 km/h (2 Bft) W-SW 251 2 min 0,000 mm 0,0 UV-I 18 W/m -1,8 C -0,7 C 11,3 km/h (2 Bft) 98,00 %
11.12.2016 08:02 -0,2 C 88 % 1020,8 hPa 0,0 l/m 7,7 km/h (2 Bft) W-SW 254 2 min 0,000 mm 0,0 UV-I 19 W/m -1,9 C -1,6 C 12,9 km/h (3 Bft) 100,00 %
11.12.2016 08:04 -0,2 C 88 % 1020,8 hPa 0,0 l/m 10,9 km/h (2 Bft) W 269 2 min 0,000 mm 0,0 UV-I 20 W/m -1,9 C -4,4 C 14,5 km/h (3 Bft) 100,00 %
11.12.2016 08:06 -0,1 C 88 % 1020,8 hPa 0,0 l/m 8,6 km/h (2 Bft) SW 234 2 min 0,000 mm 0,0 UV-I 21 W/m -1,8 C -2,3 C 14,5 km/h (3 Bft) 100,00 %
11.12.2016 08:08 0,1 C 88 % 1020,8 hPa 0,0 l/m 7,6 km/h (2 Bft) SW 217 0 min 0,000 mm 0,0 UV-I 23 W/m -1,6 C -1,1 C 12,9 km/h (3 Bft) 100,00 %
11.12.2016 08:10 0,2 C 88 % 1020,9 hPa 0,0 l/m 7,2 km/h (2 Bft) W-SW 252 0 min 0,000 mm 0,0 UV-I 24 W/m -1,5 C -0,6 C 11,3 km/h (2 Bft) 96,23 %
11.12.2016 08:12 0,3 C 87 % 1020,8 hPa 0,0 l/m 8,9 km/h (2 Bft) W-SW 257 2 min 0,000 mm 0,0 UV-I 33 W/m -1,6 C -2,2 C 12,9 km/h (3 Bft) 100,00 %
11.12.2016 08:14 0,3 C 87 % 1020,9 hPa 0,0 l/m 9,3 km/h (2 Bft) W 260 2 min 0,000 mm 0,0 UV-I 45 W/m -1,6 C -2,5 C 12,9 km/h (3 Bft) 97,14 %
11.12.2016 08:16 0,3 C 87 % 1020,9 hPa 0,0 l/m 9,5 km/h (2 Bft) W 259 2 min 0,000 mm 0,0 UV-I 41 W/m -1,6 C -2,7 C 14,5 km/h (3 Bft) 100,00 %
11.12.2016 08:18 0,4 C 87 % 1021,0 hPa 0,0 l/m 8,7 km/h (2 Bft) W-SW 257 0 min 0,000 mm 0,0 UV-I 26 W/m -1,5 C -1,9 C 12,9 km/h (3 Bft) 100,00 %
11.12.2016 08:20 0,4 C 86 % 1021,0 hPa 0,0 l/m 7,1 km/h (2 Bft) SW 227 0 min 0,000 mm 0,0 UV-I 26 W/m -1,7 C -0,3 C 14,5 km/h (3 Bft) 100,00 %
11.12.2016 08:22 0,4 C 86 % 1021,0 hPa 0,0 l/m 6,9 km/h (2 Bft) W-SW 247 0 min 0,000 mm 0,0 UV-I 28 W/m -1,7 C -0,1 C 11,3 km/h (2 Bft) 100,00 %
11.12.2016 08:24 0,4 C 86 % 1021,1 hPa 0,0 l/m 7,7 km/h (2 Bft) SW 227 0 min 0,000 mm 0,0 UV-I 29 W/m -1,7 C -0,9 C 11,3 km/h (2 Bft) 100,00 %
11.12.2016 08:26 0,4 C 86 % 1021,1 hPa 0,0 l/m 6,5 km/h (2 Bft) SW 234 0 min 0,000 mm 0,0 UV-I 30 W/m -1,7 C 0,3 C 11,3 km/h (2 Bft) 100,00 %
11.12.2016 08:28 0,3 C 86 % 1021,1 hPa 0,0 l/m 8,1 km/h (2 Bft) W-SW 243 0 min 0,000 mm 0,0 UV-I 30 W/m -1,8 C -1,4 C 12,9 km/h (3 Bft) 96,23 %
11.12.2016 08:30 0,4 C 86 % 1021,1 hPa 0,0 l/m 8,9 km/h (2 Bft) W-SW 248 0 min 0,000 mm 0,0 UV-I 30 W/m -1,7 C -2,1 C 14,5 km/h (3 Bft) 100,00 %
11.12.2016 08:32 0,6 C 86 % 1021,0 hPa 0,0 l/m 8,9 km/h (2 Bft) W-SW 242 0 min 0,000 mm 0,0 UV-I 30 W/m -1,5 C -1,8 C 16,1 km/h (3 Bft) 100,00 %
11.12.2016 08:34 0,7 C 85 % 1021,1 hPa 0,0 l/m 8,3 km/h (2 Bft) SW 219 0 min 0,000 mm 0,0 UV-I 28 W/m -1,5 C -1,2 C 14,5 km/h (3 Bft) 100,00 %
11.12.2016 08:36 0,8 C 85 % 1021,0 hPa 0,0 l/m 8,9 km/h (2 Bft) SW 220 0 min 0,000 mm 0,0 UV-I 28 W/m -1,4 C -1,6 C 12,9 km/h (3 Bft) 100,00 %
11.12.2016 08:38 0,8 C 85 % 1021,1 hPa 0,0 l/m 12,6 km/h (3 Bft) SW 229 0 min 0,000 mm 0,0 UV-I 28 W/m -1,4 C -4,5 C 17,7 km/h (3 Bft) 100,00 %
11.12.2016 08:40 0,9 C 85 % 1021,0 hPa 0,0 l/m 11,1 km/h (2 Bft) W 267 0 min 0,000 mm 0,0 UV-I 28 W/m -1,3 C -3,3 C 16,1 km/h (3 Bft) 100,00 %
11.12.2016 08:42 0,9 C 84 % 1021,0 hPa 0,0 l/m 14,0 km/h (3 Bft) W-SW 244 0 min 0,000 mm 0,0 UV-I 28 W/m -1,5 C -5,3 C 22,5 km/h (4 Bft) 97,87 %
11.12.2016 08:44 1,1 C 84 % 1021,0 hPa 0,0 l/m 14,2 km/h (3 Bft) W-SW 242 0 min 0,000 mm 0,0 UV-I 31 W/m -1,3 C -5,2 C 20,9 km/h (4 Bft) 100,00 %
11.12.2016 08:46 1,3 C 83 % 1021,1 hPa 0,0 l/m 15,2 km/h (3 Bft) W 259 0 min 0,000 mm 0,0 UV-I 42 W/m -1,3 C -5,5 C 20,9 km/h (4 Bft) 100,00 %
11.12.2016 08:48 1,4 C 83 % 1021,1 hPa 0,0 l/m 15,2 km/h (3 Bft) W-SW 240 0 min 0,000 mm 0,0 UV-I 33 W/m -1,2 C -5,4 C 22,5 km/h (4 Bft) 97,37 %
11.12.2016 08:50 1,6 C 82 % 1021,1 hPa 0,0 l/m 16,6 km/h (3 Bft) W 259 0 min 0,000 mm 0,0 UV-I 27 W/m -1,1 C -5,9 C 22,5 km/h (4 Bft) 96,43 %
11.12.2016 08:52 1,7 C 81 % 1021,1 hPa 0,0 l/m 17,3 km/h (3 Bft) W-SW 246 0 min 0,000 mm 0,0 UV-I 26 W/m -1,2 C -6,2 C 22,5 km/h (4 Bft) 97,87 %
11.12.2016 08:54 1,8 C 81 % 1021,1 hPa 0,0 l/m 19,1 km/h (3 Bft) W-SW 257 0 min 0,000 mm 0,0 UV-I 25 W/m -1,1 C -6,9 C 27,4 km/h (4 Bft) 95,74 %
11.12.2016 08:56 2,0 C 80 % 1021,1 hPa 0,0 l/m 19,2 km/h (3 Bft) W-SW 238 0 min 0,000 mm 0,0 UV-I 25 W/m -1,1 C -6,7 C 24,1 km/h (4 Bft) 97,56 %
11.12.2016 08:58 2,2 C 80 % 1021,1 hPa 0,0 l/m 16,3 km/h (3 Bft) W-SW 248 0 min 0,000 mm 0,0 UV-I 26 W/m -0,9 C -5,0 C 22,5 km/h (4 Bft) 97,56 %
11.12.2016 09:00 2,2 C 79 % 1021,2 hPa 0,0 l/m 15,2 km/h (3 Bft) W-SW 245 0 min 0,025 mm 0,0 UV-I 26 W/m -1,1 C -4,4 C 22,5 km/h (4 Bft) 94,34 %
11.12.2016 09:02 2,3 C 79 % 1021,2 hPa 0,0 l/m 15,5 km/h (3 Bft) SW 227 0 min 0,000 mm 0,0 UV-I 26 W/m -1,0 C -4,5 C 20,9 km/h (4 Bft) 98,00 %
11.12.2016 09:04 2,3 C 78 % 1021,1 hPa 0,0 l/m 15,2 km/h (3 Bft) W 261 0 min 0,000 mm 0,0 UV-I 28 W/m -1,1 C -4,3 C 20,9 km/h (4 Bft) 97,56 %
11.12.2016 09:06 2,4 C 78 % 1021,2 hPa 0,0 l/m 14,4 km/h (3 Bft) W-SW 253 0 min 0,000 mm 0,0 UV-I 32 W/m -1,0 C -3,7 C 22,5 km/h (4 Bft) 98,00 %
11.12.2016 09:08 2,4 C 78 % 1021,2 hPa 0,0 l/m 11,4 km/h (2 Bft) W-SW 250 0 min 0,000 mm 0,0 UV-I 32 W/m -1,0 C -1,8 C 16,1 km/h (3 Bft) 98,00 %
11.12.2016 09:10 2,4 C 78 % 1021,2 hPa 0,0 l/m 10,8 km/h (2 Bft) W-SW 244 0 min 0,000 mm 0,0 UV-I 38 W/m -1,0 C -1,4 C 17,7 km/h (3 Bft) 97,22 %
11.12.2016 09:12 2,5 C 78 % 1021,1 hPa 0,0 l/m 11,9 km/h (2 Bft) SW 227 0 min 0,000 mm 0,0 UV-I 45 W/m -0,9 C -2,1 C 16,1 km/h (3 Bft) 98,18 %
11.12.2016 09:14 2,5 C 77 % 1021,1 hPa 0,0 l/m 11,1 km/h (2 Bft) W 260 0 min 0,000 mm 0,0 UV-I 63 W/m -1,1 C -1,5 C 19,3 km/h (3 Bft) 95,24 %
11.12.2016 09:16 2,6 C 78 % 1021,1 hPa 0,0 l/m 9,9 km/h (2 Bft) SW 227 2 min 0,000 mm 0,0 UV-I 127 W/m -0,8 C -0,5 C 14,5 km/h (3 Bft) 97,37 %
11.12.2016 09:18 2,6 C 78 % 1021,0 hPa 0,0 l/m 11,9 km/h (2 Bft) W-SW 238 2 min 0,000 mm 0,0 UV-I 129 W/m -0,8 C -1,9 C 16,1 km/h (3 Bft) 96,77 %
11.12.2016 09:20 2,6 C 78 % 1020,9 hPa 0,0 l/m 11,6 km/h (2 Bft) W-SW 255 2 min 0,000 mm 0,0 UV-I 166 W/m -0,8 C -1,7 C 17,7 km/h (3 Bft) 95,74 %
11.12.2016 09:22 2,6 C 78 % 1020,9 hPa 0,2 l/m 13,4 km/h (3 Bft) SW 215 2 min 0,000 mm 0,0 UV-I 171 W/m -0,8 C -2,9 C 19,3 km/h (3 Bft) 97,87 %
11.12.2016 09:24 2,7 C 78 % 1020,9 hPa 0,0 l/m 10,1 km/h (2 Bft) W 264 2 min 0,000 mm 0,0 UV-I 198 W/m -0,7 C -0,5 C 17,7 km/h (3 Bft) 97,37 %
11.12.2016 09:26 2,8 C 77 % 1020,9 hPa 0,0 l/m 13,2 km/h (3 Bft) SW 229 2 min 0,000 mm 0,0 UV-I 198 W/m -0,8 C -2,5 C 22,5 km/h (4 Bft) 98,21 %
11.12.2016 09:28 2,9 C 77 % 1020,9 hPa 0,0 l/m 13,1 km/h (3 Bft) SW 224 2 min 0,000 mm 0,0 UV-I 171 W/m -0,7 C -2,4 C 22,5 km/h (4 Bft) 97,37 %
11.12.2016 09:30 2,9 C 77 % 1020,9 hPa 0,0 l/m 16,0 km/h (3 Bft) SW 221 2 min 0,000 mm 0,0 UV-I 160 W/m -0,7 C -4,0 C 20,9 km/h (4 Bft) 98,21 %
11.12.2016 09:32 3,0 C 77 % 1021,0 hPa 0,0 l/m 15,9 km/h (3 Bft) SW 219 2 min 0,000 mm 0,0 UV-I 169 W/m -0,6 C -3,8 C 20,9 km/h (4 Bft) 97,56 %
11.12.2016 09:34 3,1 C 77 % 1021,0 hPa 0,0 l/m 10,9 km/h (2 Bft) W 263 2 min 0,000 mm 0,0 UV-I 148 W/m -0,5 C -0,7 C 16,1 km/h (3 Bft) 96,23 %
11.12.2016 09:36 3,3 C 76 % 1021,0 hPa 0,0 l/m 13,4 km/h (3 Bft) W-SW 254 2 min 0,000 mm 0,0 UV-I 213 W/m -0,5 C -2,1 C 17,7 km/h (3 Bft) 100,00 %
11.12.2016 09:38 3,4 C 76 % 1021,0 hPa 0,0 l/m 13,6 km/h (3 Bft) SW 230 2 min 0,000 mm 0,0 UV-I 194 W/m -0,4 C -2,1 C 17,7 km/h (3 Bft) 97,37 %
11.12.2016 09:40 3,6 C 75 % 1021,0 hPa 0,0 l/m 16,4 km/h (3 Bft) W-SW 249 2 min 0,000 mm 0,0 UV-I 183 W/m -0,4 C -3,3 C 24,1 km/h (4 Bft) 100,00 %
11.12.2016 09:42 3,8 C 73 % 1020,9 hPa 0,0 l/m 14,4 km/h (3 Bft) SW 228 2 min 0,000 mm 0,0 UV-I 174 W/m -0,6 C -2,1 C 19,3 km/h (3 Bft) 100,00 %
11.12.2016 09:44 3,9 C 72 % 1020,8 hPa 0,0 l/m 12,0 km/h (2 Bft) W-SW 245 0 min 0,000 mm 0,0 UV-I 99 W/m -0,7 C -0,5 C 20,9 km/h (4 Bft) 98,21 %
11.12.2016 09:46 4,0 C 72 % 1020,7 hPa 0,0 l/m 12,6 km/h (3 Bft) W-SW 237 0 min 0,000 mm 0,0 UV-I 98 W/m -0,6 C -0,8 C 20,9 km/h (4 Bft) 100,00 %
11.12.2016 09:48 3,9 C 72 % 1020,6 hPa 0,0 l/m 10,6 km/h (2 Bft) SW 225 0 min 0,000 mm 0,0 UV-I 95 W/m -0,7 C 0,4 C 16,1 km/h (3 Bft) 100,00 %
11.12.2016 09:50 3,9 C 73 % 1020,6 hPa 0,0 l/m 12,4 km/h (3 Bft) SW 224 2 min 0,000 mm 0,0 UV-I 130 W/m -0,5 C -0,8 C 16,1 km/h (3 Bft) 100,00 %
11.12.2016 09:52 3,9 C 72 % 1020,5 hPa 0,0 l/m 10,0 km/h (2 Bft) S-SW 213 2 min 0,000 mm 0,0 UV-I 254 W/m -0,7 C 0,9 C 17,7 km/h (3 Bft) 100,00 %
11.12.2016 09:54 4,0 C 73 % 1020,5 hPa 0,0 l/m 11,5 km/h (2 Bft) W-SW 242 2 min 0,000 mm 0,0 UV-I 300 W/m -0,4 C -0,1 C 14,5 km/h (3 Bft) 100,00 %
11.12.2016 09:56 4,1 C 72 % 1020,5 hPa 0,0 l/m 9,2 km/h (2 Bft) W-SW 239 2 min 0,000 mm 0,0 UV-I 316 W/m -0,5 C 1,7 C 12,9 km/h (3 Bft) 100,00 %
11.12.2016 09:58 4,2 C 72 % 1020,4 hPa 0,0 l/m 9,2 km/h (2 Bft) W-SW 254 2 min 0,000 mm 0,0 UV-I 327 W/m -0,4 C 1,8 C 16,1 km/h (3 Bft) 100,00 %
11.12.2016 10:00 4,4 C 72 % 1020,3 hPa 0,0 l/m 8,0 km/h (2 Bft) SW 214 2 min 0,077 mm 0,0 UV-I 341 W/m -0,2 C 3,0 C 12,9 km/h (3 Bft) 100,00 %
11.12.2016 10:02 4,6 C 71 % 1020,3 hPa 0,0 l/m 11,0 km/h (2 Bft) SW 235 2 min 0,000 mm 0,0 UV-I 356 W/m -0,2 C 0,9 C 16,1 km/h (3 Bft) 100,00 %
11.12.2016 10:04 4,7 C 71 % 1020,3 hPa 0,0 l/m 12,7 km/h (3 Bft) SW 229 2 min 0,000 mm 0,0 UV-I 338 W/m -0,1 C -0,0 C 17,7 km/h (3 Bft) 100,00 %
11.12.2016 10:06 4,8 C 71 % 1020,3 hPa 0,0 l/m 9,5 km/h (2 Bft) W 276 2 min 0,000 mm 0,0 UV-I 330 W/m -0,0 C 2,2 C 17,7 km/h (3 Bft) 98,00 %
11.12.2016 10:08 5,0 C 71 % 1020,4 hPa 0,0 l/m 10,6 km/h (2 Bft) W-SW 250 2 min 0,000 mm 0,0 UV-I 285 W/m 0,2 C 1,7 C 16,1 km/h (3 Bft) 100,00 %
11.12.2016 10:10 5,2 C 69 % 1020,3 hPa 0,0 l/m 12,7 km/h (3 Bft) SW 232 2 min 0,000 mm 0,0 UV-I 315 W/m -0,0 C 0,6 C 17,7 km/h (3 Bft) 100,00 %
11.12.2016 10:12 5,3 C 69 % 1020,3 hPa 0,0 l/m 13,6 km/h (3 Bft) W 259 2 min 0,000 mm 0,0 UV-I 275 W/m 0,1 C 0,2 C 22,5 km/h (4 Bft) 98,11 %
11.12.2016 10:14 5,4 C 67 % 1020,2 hPa 0,0 l/m 14,2 km/h (3 Bft) W 263 0 min 0,000 mm 0,0 UV-I 133 W/m -0,2 C -0,0 C 20,9 km/h (4 Bft) 100,00 %
11.12.2016 10:16 5,4 C 67 % 1020,1 hPa 0,0 l/m 13,5 km/h (3 Bft) SW 227 0 min 0,000 mm 0,0 UV-I 114 W/m -0,2 C 0,4 C 19,3 km/h (3 Bft) 96,43 %
11.12.2016 10:18 5,3 C 67 % 1020,1 hPa 0,0 l/m 11,6 km/h (2 Bft) W 262 0 min 0,000 mm 0,0 UV-I 106 W/m -0,3 C 1,3 C 19,3 km/h (3 Bft) 100,00 %
11.12.2016 10:20 5,2 C 68 % 1020,1 hPa 0,0 l/m 9,6 km/h (2 Bft) W-SW 249 0 min 0,000 mm 0,0 UV-I 119 W/m -0,2 C 2,6 C 16,1 km/h (3 Bft) 100,00 %
11.12.2016 10:22 5,2 C 67 % 1020,0 hPa 0,0 l/m 12,2 km/h (2 Bft) S-SW 209 0 min 0,000 mm 0,0 UV-I 135 W/m -0,4 C 0,9 C 17,7 km/h (3 Bft) 97,56 %
11.12.2016 10:24 5,2 C 68 % 1019,8 hPa 0,0 l/m 12,2 km/h (2 Bft) SW 231 0 min 0,000 mm 0,0 UV-I 150 W/m -0,2 C 0,9 C 17,7 km/h (3 Bft) 100,00 %
11.12.2016 10:26 5,1 C 68 % 1019,8 hPa 0,0 l/m 12,1 km/h (2 Bft) W-SW 245 0 min 0,000 mm 0,0 UV-I 108 W/m -0,3 C 0,8 C 20,9 km/h (4 Bft) 100,00 %
11.12.2016 10:28 5,0 C 68 % 1019,8 hPa 0,0 l/m 12,3 km/h (3 Bft) SW 235 0 min 0,000 mm 0,0 UV-I 113 W/m -0,4 C 0,6 C 20,9 km/h (4 Bft) 100,00 %
11.12.2016 10:30 4,9 C 68 % 1019,8 hPa 0,0 l/m 10,9 km/h (2 Bft) W-SW 257 0 min 0,000 mm 0,2 UV-I 112 W/m -0,5 C 1,3 C 14,5 km/h (3 Bft) 100,00 %
11.12.2016 10:32 4,9 C 69 % 1019,8 hPa 0,0 l/m 12,9 km/h (3 Bft) W-SW 250 2 min 0,000 mm 0,5 UV-I 306 W/m -0,3 C 0,1 C 19,3 km/h (3 Bft) 100,00 %
11.12.2016 10:34 4,9 C 69 % 1019,7 hPa 0,0 l/m 9,4 km/h (2 Bft) W-SW 248 2 min 0,000 mm 0,5 UV-I 227 W/m -0,3 C 2,4 C 12,9 km/h (3 Bft) 100,00 %
11.12.2016 10:36 4,9 C 69 % 1019,8 hPa 0,0 l/m 12,0 km/h (2 Bft) W-SW 247 0 min 0,000 mm 0,5 UV-I 153 W/m -0,3 C 0,6 C 19,3 km/h (3 Bft) 100,00 %
11.12.2016 10:38 5,1 C 68 % 1019,8 hPa 0,0 l/m 14,4 km/h (3 Bft) W-SW 240 2 min 0,000 mm 0,5 UV-I 300 W/m -0,3 C -0,5 C 20,9 km/h (4 Bft) 100,00 %
11.12.2016 10:40 5,3 C 68 % 1019,8 hPa 0,0 l/m 10,0 km/h (2 Bft) W-SW 238 2 min 0,000 mm 0,5 UV-I 308 W/m -0,1 C 2,4 C 17,7 km/h (3 Bft) 100,00 %
11.12.2016 10:42 5,4 C 67 % 1019,8 hPa 0,0 l/m 12,4 km/h (3 Bft) W-SW 239 2 min 0,000 mm 0,5 UV-I 325 W/m -0,2 C 1,0 C 17,7 km/h (3 Bft) 100,00 %
11.12.2016 10:44 5,6 C 67 % 1019,7 hPa 0,0 l/m 12,7 km/h (3 Bft) W 261 2 min 0,000 mm 0,5 UV-I 362 W/m -0,0 C 1,0 C 17,7 km/h (3 Bft) 100,00 %
11.12.2016 10:46 5,8 C 66 % 1019,7 hPa 0,0 l/m 13,1 km/h (3 Bft) W-SW 251 2 min 0,000 mm 0,5 UV-I 357 W/m -0,0 C 1,0 C 17,7 km/h (3 Bft) 100,00 %
11.12.2016 10:48 5,9 C 67 % 1019,7 hPa 0,0 l/m 11,7 km/h (2 Bft) W 263 2 min 0,000 mm 0,5 UV-I 305 W/m 0,3 C 2,0 C 17,7 km/h (3 Bft) 100,00 %
11.12.2016 10:50 6,0 C 66 % 1019,6 hPa 0,0 l/m 5,0 km/h (1 Bft) W-NW 288 0 min 0,000 mm 0,5 UV-I 161 W/m 0,1 C 6,0 C 9,7 km/h (2 Bft) 97,87 %
11.12.2016 10:52 6,0 C 67 % 1019,7 hPa 0,0 l/m 3,7 km/h (1 Bft) W-NW 302 0 min 0,000 mm 0,5 UV-I 105 W/m 0,3 C 6,0 C 6,4 km/h (2 Bft) 95,74 %
11.12.2016 10:54 5,8 C 69 % 1019,7 hPa 0,0 l/m 3,0 km/h (1 Bft) N-NO 17 0 min 0,000 mm 0,5 UV-I 139 W/m 0,6 C 5,8 C 6,4 km/h (2 Bft) 97,37 %
11.12.2016 10:56 5,2 C 70 % 1019,5 hPa 0,0 l/m 2,5 km/h (1 Bft) NW 323 2 min 0,000 mm 0,0 UV-I 179 W/m 0,2 C 5,2 C 6,4 km/h (2 Bft) 98,00 %
11.12.2016 10:58 4,8 C 72 % 1019,6 hPa 0,0 l/m 6,2 km/h (2 Bft) W-SW 242 2 min 0,000 mm 0,0 UV-I 179 W/m 0,2 C 4,8 C 17,7 km/h (3 Bft) 98,00 %
11.12.2016 11:00 4,9 C 72 % 1019,6 hPa 0,0 l/m 10,6 km/h (2 Bft) W 267 0 min 0,000 mm 0,0 UV-I 157 W/m 0,3 C 1,5 C 17,7 km/h (3 Bft) 92,68 %
11.12.2016 11:02 5,1 C 72 % 1019,5 hPa 0,0 l/m 13,0 km/h (3 Bft) W-SW 242 0 min 0,127 mm 0,0 UV-I 150 W/m 0,5 C 0,3 C 19,3 km/h (3 Bft) 96,00 %
11.12.2016 11:04 5,3 C 71 % 1019,6 hPa 0,0 l/m 5,8 km/h (2 Bft) NW 313 0 min 0,000 mm 0,0 UV-I 143 W/m 0,5 C 5,3 C 12,9 km/h (3 Bft) 95,74 %
11.12.2016 11:06 4,9 C 72 % 1019,5 hPa 0,0 l/m 3,4 km/h (1 Bft) W-NW 290 0 min 0,000 mm 0,0 UV-I 115 W/m 0,3 C 4,9 C 6,4 km/h (2 Bft) 98,00 %
11.12.2016 11:08 4,4 C 72 % 1019,4 hPa 0,0 l/m 2,8 km/h (1 Bft) N-NW 333 0 min 0,000 mm 0,0 UV-I 91 W/m -0,2 C 4,4 C 11,3 km/h (2 Bft) 95,74 %
11.12.2016 11:10 4,1 C 74 % 1019,4 hPa 0,0 l/m 2,7 km/h (1 Bft) NW 311 0 min 0,000 mm 0,0 UV-I 70 W/m -0,1 C 4,1 C 6,4 km/h (2 Bft) 96,00 %
11.12.2016 11:12 3,9 C 74 % 1019,3 hPa 0,0 l/m 3,7 km/h (1 Bft) NW 307 0 min 0,000 mm 0,0 UV-I 55 W/m -0,3 C 3,9 C 6,4 km/h (2 Bft) 97,50 %
11.12.2016 11:14 3,9 C 74 % 1019,3 hPa 0,0 l/m 3,5 km/h (1 Bft) W 277 0 min 0,000 mm 0,0 UV-I 55 W/m -0,3 C 3,9 C 6,4 km/h (2 Bft) 98,08 %
11.12.2016 11:16 3,9 C 74 % 1019,2 hPa 0,0 l/m 3,8 km/h (1 Bft) NW 310 0 min 0,000 mm 0,0 UV-I 49 W/m -0,3 C 3,9 C 6,4 km/h (2 Bft) 97,44 %
11.12.2016 11:18 3,9 C 75 % 1019,3 hPa 0,0 l/m 3,1 km/h (1 Bft) NW 321 0 min 0,000 mm 0,0 UV-I 47 W/m -0,1 C 3,9 C 6,4 km/h (2 Bft) 96,23 %
11.12.2016 11:20 3,8 C 76 % 1019,3 hPa 0,0 l/m 1,9 km/h (1 Bft) NW 324 0 min 0,000 mm 0,0 UV-I 41 W/m -0,0 C 3,8 C 6,4 km/h (2 Bft) 96,00 %
11.12.2016 11:22 3,7 C 77 % 1019,3 hPa 0,0 l/m 1,3 km/h (1 Bft) W-NW 303 0 min 0,000 mm 0,0 UV-I 38 W/m 0,1 C 3,7 C 4,8 km/h (1 Bft) 100,00 %
11.12.2016 11:24 3,6 C 78 % 1019,3 hPa 0,0 l/m 1,6 km/h (1 Bft) W-NW 303 0 min 0,000 mm 0,0 UV-I 34 W/m 0,1 C 3,6 C 3,2 km/h (1 Bft) 96,00 %
11.12.2016 11:26 3,4 C 78 % 1019,2 hPa 0,0 l/m 2,6 km/h (1 Bft) NW 312 0 min 0,000 mm 0,0 UV-I 32 W/m -0,1 C 3,4 C 6,4 km/h (2 Bft) 100,00 %
11.12.2016 11:28 3,3 C 78 % 1019,2 hPa 0,0 l/m 4,0 km/h (1 Bft) NW 326 0 min 0,000 mm 0,0 UV-I 29 W/m -0,2 C 3,3 C 8,0 km/h (2 Bft) 100,00 %
11.12.2016 11:30 3,3 C 78 % 1019,1 hPa 0,0 l/m 2,4 km/h (1 Bft) W-NW 299 0 min 0,000 mm 0,0 UV-I 27 W/m -0,2 C 3,3 C 4,8 km/h (1 Bft) 100,00 %
11.12.2016 11:32 3,3 C 79 % 1019,1 hPa 0,0 l/m 3,0 km/h (1 Bft) W-NW 296 0 min 0,000 mm 0,0 UV-I 28 W/m 0,0 C 3,3 C 6,4 km/h (2 Bft) 97,56 %
11.12.2016 11:34 3,2 C 79 % 1019,1 hPa 0,0 l/m 2,7 km/h (1 Bft) NW 317 0 min 0,000 mm 0,0 UV-I 36 W/m -0,1 C 3,2 C 4,8 km/h (1 Bft) 100,00 %
11.12.2016 11:36 3,2 C 79 % 1019,2 hPa 0,0 l/m 2,0 km/h (1 Bft) NW 313 0 min 0,000 mm 0,0 UV-I 47 W/m -0,1 C 3,2 C 4,8 km/h (1 Bft) 100,00 %
11.12.2016 11:38 3,1 C 80 % 1019,1 hPa 0,0 l/m 1,6 km/h (1 Bft) NW 313 0 min 0,000 mm 0,0 UV-I 45 W/m -0,0 C 3,1 C 3,2 km/h (1 Bft) 100,00 %
11.12.2016 11:40 3,1 C 81 % 1019,2 hPa 0,0 l/m 2,3 km/h (1 Bft) NW 322 0 min 0,000 mm 0,0 UV-I 47 W/m 0,2 C 3,1 C 4,8 km/h (1 Bft) 100,00 %
11.12.2016 11:42 3,1 C 81 % 1019,2 hPa 0,0 l/m 2,1 km/h (1 Bft) NW 315 0 min 0,000 mm 0,0 UV-I 55 W/m 0,2 C 3,1 C 3,2 km/h (1 Bft) 100,00 %
11.12.2016 11:44 3,0 C 82 % 1019,2 hPa 0,0 l/m 2,6 km/h (1 Bft) NW 306 0 min 0,000 mm 0,0 UV-I 62 W/m 0,2 C 3,0 C 4,8 km/h (1 Bft) 97,37 %
11.12.2016 11:46 3,1 C 82 % 1019,2 hPa 0,0 l/m 2,0 km/h (1 Bft) NW 318 0 min 0,000 mm 0,0 UV-I 68 W/m 0,3 C 3,1 C 3,2 km/h (1 Bft) 98,21 %
11.12.2016 11:48 3,1 C 82 % 1019,2 hPa 0,0 l/m 1,1 km/h (1 Bft) NW 318 0 min 0,000 mm 0,0 UV-I 71 W/m 0,3 C 3,1 C 3,2 km/h (1 Bft) 100,00 %
11.12.2016 11:50 3,1 C 83 % 1019,2 hPa 0,0 l/m 2,2 km/h (1 Bft) NW 313 0 min 0,000 mm 0,0 UV-I 78 W/m 0,5 C 3,1 C 4,8 km/h (1 Bft) 97,92 %
11.12.2016 11:52 3,1 C 84 % 1019,3 hPa 0,0 l/m 2,2 km/h (1 Bft) NW 311 0 min 0,000 mm 0,0 UV-I 78 W/m 0,7 C 3,1 C 3,2 km/h (1 Bft) 100,00 %
11.12.2016 11:54 3,1 C 84 % 1019,3 hPa 0,0 l/m 2,6 km/h (1 Bft) NW 312 0 min 0,000 mm 0,0 UV-I 59 W/m 0,7 C 3,1 C 4,8 km/h (1 Bft) 97,62 %
11.12.2016 11:56 3,0 C 85 % 1019,4 hPa 0,0 l/m 1,7 km/h (1 Bft) NW 310 0 min 0,000 mm 0,0 UV-I 53 W/m 0,7 C 3,0 C 4,8 km/h (1 Bft) 100,00 %
11.12.2016 11:58 2,9 C 86 % 1019,4 hPa 0,0 l/m 3,9 km/h (1 Bft) W-NW 298 0 min 0,000 mm 0,0 UV-I 69 W/m 0,8 C 2,9 C 8,0 km/h (2 Bft) 98,11 %
11.12.2016 12:00 2,9 C 86 % 1019,4 hPa 0,0 l/m 2,9 km/h (1 Bft) N-NW 331 0 min 0,025 mm 0,0 UV-I 62 W/m 0,8 C 2,9 C 6,4 km/h (2 Bft) 100,00 %
11.12.2016 12:02 2,9 C 87 % 1019,3 hPa 0,0 l/m 1,6 km/h (1 Bft) N-NW 327 0 min 0,000 mm 0,0 UV-I 60 W/m 1,0 C 2,9 C 4,8 km/h (1 Bft) 100,00 %
11.12.2016 12:04 2,9 C 87 % 1019,3 hPa 0,2 l/m 0,9 km/h (0 Bft) NW 324 0 min 0,000 mm 0,0 UV-I 50 W/m 1,0 C 2,9 C 4,8 km/h (1 Bft) 100,00 %
11.12.2016 12:06 2,8 C 87 % 1019,3 hPa 0,0 l/m 0,7 km/h (0 Bft) NW 324 0 min 0,000 mm 0,0 UV-I 50 W/m 0,9 C 2,8 C 3,2 km/h (1 Bft) 100,00 %
11.12.2016 12:08 2,8 C 87 % 1019,2 hPa 0,0 l/m 0,5 km/h (0 Bft) NW 324 0 min 0,000 mm 0,0 UV-I 46 W/m 0,9 C 2,8 C 3,2 km/h (1 Bft) 100,00 %
11.12.2016 12:10 2,8 C 87 % 1019,2 hPa 0,0 l/m 3,1 km/h (1 Bft) NW 306 0 min 0,000 mm 0,0 UV-I 38 W/m 0,9 C 2,8 C 4,8 km/h (1 Bft) 100,00 %
11.12.2016 12:12 2,8 C 88 % 1019,1 hPa 0,0 l/m 2,5 km/h (1 Bft) NW 306 0 min 0,000 mm 0,0 UV-I 38 W/m 1,0 C 2,8 C 4,8 km/h (1 Bft) 100,00 %
11.12.2016 12:14 2,9 C 87 % 1019,2 hPa 0,0 l/m 2,0 km/h (1 Bft) NW 311 0 min 0,000 mm 0,0 UV-I 33 W/m 1,0 C 2,9 C 4,8 km/h (1 Bft) 98,11 %
11.12.2016 12:16 2,9 C 88 % 1019,1 hPa 0,0 l/m 3,3 km/h (1 Bft) W-NW 296 0 min 0,000 mm 0,0 UV-I 32 W/m 1,1 C 2,9 C 11,3 km/h (2 Bft) 100,00 %
11.12.2016 12:18 3,0 C 88 % 1019,1 hPa 0,0 l/m 2,0 km/h (1 Bft) NW 313 0 min 0,000 mm 0,0 UV-I 30 W/m 1,2 C 3,0 C 11,3 km/h (2 Bft) 100,00 %
11.12.2016 12:20 3,0 C 88 % 1019,1 hPa 0,0 l/m 1,1 km/h (1 Bft) NW 313 0 min 0,000 mm 0,0 UV-I 30 W/m 1,2 C 3,0 C 3,2 km/h (1 Bft) 97,87 %
11.12.2016 12:22 3,1 C 89 % 1019,0 hPa 0,0 l/m 2,8 km/h (1 Bft) W-NW 290 0 min 0,000 mm 0,0 UV-I 33 W/m 1,5 C 3,1 C 4,8 km/h (1 Bft) 100,00 %
11.12.2016 12:24 3,2 C 89 % 1018,9 hPa 0,0 l/m 4,8 km/h (1 Bft) W 278 0 min 0,000 mm 0,0 UV-I 27 W/m 1,6 C 3,2 C 6,4 km/h (2 Bft) 100,00 %
11.12.2016 12:26 3,3 C 90 % 1019,0 hPa 0,0 l/m 4,5 km/h (1 Bft) W 273 0 min 0,000 mm 0,0 UV-I 26 W/m 1,8 C 3,3 C 6,4 km/h (2 Bft) 98,00 %
11.12.2016 12:28 3,6 C 90 % 1019,0 hPa 0,0 l/m 2,1 km/h (1 Bft) W 273 0 min 0,000 mm 0,0 UV-I 27 W/m 2,1 C 3,6 C 4,8 km/h (1 Bft) 100,00 %
11.12.2016 12:30 3,8 C 90 % 1019,0 hPa 0,0 l/m 1,6 km/h (1 Bft) W 273 0 min 0,000 mm 0,0 UV-I 28 W/m 2,3 C 3,8 C 3,2 km/h (1 Bft) 100,00 %
11.12.2016 12:32 3,9 C 89 % 1019,0 hPa 0,0 l/m 0,2 km/h (0 Bft) W 273 0 min 0,000 mm 0,0 UV-I 29 W/m 2,3 C 3,9 C 1,6 km/h (1 Bft) 97,92 %
11.12.2016 12:34 3,9 C 89 % 1018,9 hPa 0,0 l/m 1,5 km/h (1 Bft) W 273 0 min 0,000 mm 0,0 UV-I 29 W/m 2,3 C 3,9 C 3,2 km/h (1 Bft) 100,00 %
11.12.2016 12:36 3,9 C 89 % 1018,9 hPa 0,0 l/m 1,9 km/h (1 Bft) N 355 0 min 0,000 mm 0,0 UV-I 29 W/m 2,3 C 3,9 C 4,8 km/h (1 Bft) 100,00 %
11.12.2016 12:38 3,9 C 89 % 1018,9 hPa 0,0 l/m 1,3 km/h (1 Bft) N 355 0 min 0,000 mm 0,0 UV-I 28 W/m 2,3 C 3,9 C 4,8 km/h (1 Bft) 100,00 %
11.12.2016 12:40 3,8 C 89 % 1018,8 hPa 0,0 l/m 2,0 km/h (1 Bft) N-NO 19 0 min 0,000 mm 0,0 UV-I 28 W/m 2,2 C 3,8 C 4,8 km/h (1 Bft) 100,00 %
11.12.2016 12:42 3,8 C 89 % 1018,9 hPa 0,0 l/m 2,3 km/h (1 Bft) NW 309 0 min 0,000 mm 0,0 UV-I 25 W/m 2,2 C 3,8 C 6,4 km/h (2 Bft) 98,31 %
11.12.2016 12:44 3,7 C 89 % 1018,9 hPa 0,0 l/m 2,0 km/h (1 Bft) N-NW 348 0 min 0,000 mm 0,0 UV-I 22 W/m 2,1 C 3,7 C 4,8 km/h (1 Bft) 97,37 %
11.12.2016 12:46 3,7 C 89 % 1018,9 hPa 0,0 l/m 2,5 km/h (1 Bft) NW 316 0 min 0,000 mm 0,0 UV-I 23 W/m 2,1 C 3,7 C 4,8 km/h (1 Bft) 97,87 %
11.12.2016 12:48 3,7 C 89 % 1018,9 hPa 0,0 l/m 2,0 km/h (1 Bft) NW 309 0 min 0,000 mm 0,0 UV-I 22 W/m 2,1 C 3,7 C 4,8 km/h (1 Bft) 100,00 %
11.12.2016 12:50 3,7 C 90 % 1019,0 hPa 0,0 l/m 2,8 km/h (1 Bft) NW 326 0 min 0,000 mm 0,0 UV-I 23 W/m 2,2 C 3,7 C 8,0 km/h (2 Bft) 95,74 %
11.12.2016 12:52 3,7 C 90 % 1019,0 hPa 0,0 l/m 1,3 km/h (1 Bft) NW 322 0 min 0,000 mm 0,0 UV-I 20 W/m 2,2 C 3,7 C 3,2 km/h (1 Bft) 100,00 %
11.12.2016 12:54 3,6 C 90 % 1019,0 hPa 0,0 l/m 4,7 km/h (1 Bft) N-NW 335 0 min 0,000 mm 0,0 UV-I 19 W/m 2,1 C 3,6 C 11,3 km/h (2 Bft) 100,00 %
11.12.2016 12:56 3,6 C 90 % 1019,0 hPa 0,0 l/m 2,8 km/h (1 Bft) NW 321 0 min 0,000 mm 0,0 UV-I 18 W/m 2,1 C 3,6 C 8,0 km/h (2 Bft) 100,00 %
11.12.2016 12:58 3,6 C 91 % 1019,1 hPa 0,0 l/m 1,8 km/h (1 Bft) W-NW 303 0 min 0,000 mm 0,0 UV-I 19 W/m 2,3 C 3,6 C 4,8 km/h (1 Bft) 98,21 %
11.12.2016 13:00 3,6 C 91 % 1019,1 hPa 0,0 l/m 2,8 km/h (1 Bft) N-NW 329 0 min 0,000 mm 0,0 UV-I 19 W/m 2,3 C 3,6 C 4,8 km/h (1 Bft) 95,83 %
11.12.2016 13:02 3,6 C 91 % 1019,1 hPa 0,0 l/m 3,5 km/h (1 Bft) W-NW 302 0 min 0,025 mm 0,0 UV-I 17 W/m 2,3 C 3,6 C 6,4 km/h (2 Bft) 97,01 %
11.12.2016 13:04 3,5 C 91 % 1019,1 hPa 0,0 l/m 3,2 km/h (1 Bft) W-NW 300 0 min 0,000 mm 0,0 UV-I 21 W/m 2,2 C 3,5 C 6,4 km/h (2 Bft) 97,87 %
11.12.2016 13:06 3,5 C 92 % 1019,1 hPa 0,0 l/m 2,5 km/h (1 Bft) N-NW 330 0 min 0,000 mm 0,0 UV-I 23 W/m 2,3 C 3,5 C 4,8 km/h (1 Bft) 98,11 %
11.12.2016 13:08 3,4 C 92 % 1019,1 hPa 0,0 l/m 1,9 km/h (1 Bft) NW 304 0 min 0,000 mm 0,0 UV-I 21 W/m 2,2 C 3,4 C 4,8 km/h (1 Bft) 97,56 %
11.12.2016 13:10 3,4 C 92 % 1019,1 hPa 0,0 l/m 1,9 km/h (1 Bft) W-NW 292 0 min 0,000 mm 0,0 UV-I 26 W/m 2,2 C 3,4 C 4,8 km/h (1 Bft) 97,87 %
11.12.2016 13:12 3,4 C 92 % 1019,1 hPa 0,0 l/m 3,1 km/h (1 Bft) NW 304 0 min 0,000 mm 0,0 UV-I 25 W/m 2,2 C 3,4 C 6,4 km/h (2 Bft) 97,62 %
11.12.2016 13:14 3,5 C 92 % 1019,1 hPa 0,0 l/m 3,7 km/h (1 Bft) W-SW 254 0 min 0,000 mm 0,0 UV-I 24 W/m 2,3 C 3,5 C 8,0 km/h (2 Bft) 98,00 %
11.12.2016 13:16 3,6 C 92 % 1019,1 hPa 0,0 l/m 8,1 km/h (2 Bft) W 263 0 min 0,000 mm 0,0 UV-I 24 W/m 2,4 C 2,0 C 12,9 km/h (3 Bft) 97,87 %
11.12.2016 13:18 3,8 C 93 % 1019,0 hPa 0,0 l/m 7,2 km/h (2 Bft) SW 236 0 min 0,000 mm 0,0 UV-I 30 W/m 2,8 C 3,1 C 16,1 km/h (3 Bft) 96,23 %
11.12.2016 13:20 4,0 C 94 % 1019,0 hPa 0,0 l/m 11,6 km/h (2 Bft) W 261 0 min 0,000 mm 0,0 UV-I 36 W/m 3,1 C -0,1 C 19,3 km/h (3 Bft) 97,37 %
11.12.2016 13:22 4,3 C 94 % 1019,1 hPa 0,0 l/m 11,7 km/h (2 Bft) W-SW 251 0 min 0,000 mm 0,0 UV-I 40 W/m 3,4 C 0,1 C 17,7 km/h (3 Bft) 98,00 %
11.12.2016 13:24 4,7 C 94 % 1019,0 hPa 0,0 l/m 17,6 km/h (3 Bft) W 265 0 min 0,000 mm 0,0 UV-I 40 W/m 3,8 C -2,5 C 29,0 km/h (5 Bft) 97,56 %
11.12.2016 13:26 5,1 C 94 % 1018,9 hPa 0,0 l/m 15,0 km/h (3 Bft) W-SW 241 0 min 0,000 mm 0,0 UV-I 41 W/m 4,2 C -0,8 C 27,4 km/h (4 Bft) 98,31 %
11.12.2016 13:28 5,6 C 93 % 1018,9 hPa 0,0 l/m 15,9 km/h (3 Bft) W 263 0 min 0,000 mm 0,0 UV-I 46 W/m 4,6 C -0,6 C 20,9 km/h (4 Bft) 97,56 %
11.12.2016 13:30 6,0 C 91 % 1018,9 hPa 0,0 l/m 23,8 km/h (4 Bft) W-NW 287 0 min 0,000 mm 0,0 UV-I 50 W/m 4,6 C -3,2 C 33,8 km/h (5 Bft) 98,11 %
11.12.2016 13:32 6,3 C 90 % 1018,9 hPa 0,0 l/m 22,2 km/h (4 Bft) W-SW 254 0 min 0,000 mm 0,0 UV-I 39 W/m 4,8 C -2,3 C 38,6 km/h (5 Bft) 97,37 %
11.12.2016 13:34 6,6 C 89 % 1018,9 hPa 0,0 l/m 20,9 km/h (4 Bft) W 274 0 min 0,000 mm 0,0 UV-I 37 W/m 4,9 C -1,4 C 30,6 km/h (5 Bft) 96,00 %
11.12.2016 13:36 6,9 C 86 % 1018,9 hPa 0,0 l/m 29,9 km/h (5 Bft) W 260 0 min 0,000 mm 0,0 UV-I 43 W/m 4,7 C -3,7 C 46,7 km/h (6 Bft) 97,56 %
11.12.2016 13:39 7,3 C 85 % 1018,9 hPa 0,0 l/m 25,8 km/h (4 Bft) W 264 0 min 0,000 mm 0,0 UV-I 55 W/m 4,9 C -2,1 C 43,5 km/h (6 Bft) 100,00 %
11.12.2016 13:40 7,3 C 84 % 1018,8 hPa 0,0 l/m 22,5 km/h (4 Bft) W 264 0 min 0,000 mm 0,0 UV-I 49 W/m 4,8 C -1,1 C 33,8 km/h (5 Bft) 100,00 %
11.12.2016 13:42 7,5 C 83 % 1018,9 hPa 0,0 l/m 25,4 km/h (4 Bft) W-SW 246 0 min 0,000 mm 0,0 UV-I 36 W/m 4,8 C -1,7 C 51,5 km/h (7 Bft) 98,21 %
11.12.2016 13:44 7,6 C 83 % 1018,9 hPa 0,0 l/m 31,5 km/h (5 Bft) W 273 0 min 0,000 mm 0,0 UV-I 29 W/m 4,9 C -3,1 C 49,9 km/h (6 Bft) 100,00 %
11.12.2016 13:46 7,7 C 82 % 1018,9 hPa 0,0 l/m 24,8 km/h (4 Bft) W-SW 249 0 min 0,000 mm 0,0 UV-I 20 W/m 4,8 C -1,2 C 40,2 km/h (6 Bft) 100,00 %
11.12.2016 13:48 7,7 C 82 % 1019,0 hPa 0,0 l/m 23,3 km/h (4 Bft) W-SW 252 0 min 0,000 mm 0,0 UV-I 20 W/m 4,8 C -0,8 C 33,8 km/h (5 Bft) 98,00 %
11.12.2016 13:50 7,8 C 81 % 1019,1 hPa 0,0 l/m 27,2 km/h (4 Bft) W-NW 290 0 min 0,000 mm 0,0 UV-I 23 W/m 4,7 C -1,7 C 49,9 km/h (6 Bft) 100,00 %
11.12.2016 13:52 7,8 C 81 % 1019,1 hPa 0,2 l/m 29,6 km/h (5 Bft) W-SW 237 0 min 0,000 mm 0,0 UV-I 23 W/m 4,7 C -2,3 C 56,3 km/h (7 Bft) 100,00 %
11.12.2016 13:54 7,8 C 82 % 1019,2 hPa 0,0 l/m 23,3 km/h (4 Bft) W-SW 257 0 min 0,000 mm 0,0 UV-I 22 W/m 4,9 C -0,6 C 38,6 km/h (5 Bft) 100,00 %
11.12.2016 13:56 7,8 C 82 % 1019,2 hPa 0,0 l/m 32,1 km/h (5 Bft) W 269 0 min 0,000 mm 0,0 UV-I 21 W/m 4,9 C -2,9 C 49,9 km/h (6 Bft) 100,00 %
11.12.2016 13:58 7,7 C 83 % 1019,4 hPa 0,0 l/m 24,2 km/h (4 Bft) W 259 0 min 0,000 mm 0,0 UV-I 22 W/m 5,0 C -1,1 C 53,1 km/h (7 Bft) 100,00 %
11.12.2016 14:00 7,6 C 83 % 1019,5 hPa 0,0 l/m 24,7 km/h (4 Bft) W-NW 284 0 min 0,026 mm 0,0 UV-I 22 W/m 4,9 C -1,3 C 38,6 km/h (5 Bft) 100,00 %
11.12.2016 14:02 7,5 C 84 % 1019,5 hPa 0,0 l/m 22,7 km/h (4 Bft) W 278 0 min 0,000 mm 0,0 UV-I 23 W/m 5,0 C -0,9 C 37,0 km/h (5 Bft) 100,00 %
11.12.2016 14:04 7,4 C 84 % 1019,5 hPa 0,0 l/m 18,9 km/h (3 Bft) W 262 0 min 0,000 mm 0,0 UV-I 20 W/m 4,9 C 0,3 C 37,0 km/h (5 Bft) 100,00 %
11.12.2016 14:06 7,3 C 85 % 1019,5 hPa 0,0 l/m 20,6 km/h (4 Bft) W-SW 250 0 min 0,000 mm 0,0 UV-I 20 W/m 4,9 C -0,4 C 35,4 km/h (5 Bft) 98,21 %
11.12.2016 14:08 7,2 C 85 % 1019,5 hPa 0,0 l/m 20,8 km/h (4 Bft) W 267 0 min 0,000 mm 0,0 UV-I 22 W/m 4,9 C -0,6 C 37,0 km/h (5 Bft) 100,00 %
11.12.2016 14:10 7,2 C 85 % 1019,5 hPa 0,0 l/m 24,6 km/h (4 Bft) W 263 0 min 0,000 mm 0,0 UV-I 23 W/m 4,9 C -1,8 C 43,5 km/h (6 Bft) 100,00 %
11.12.2016 14:12 7,1 C 85 % 1019,5 hPa 0,0 l/m 20,3 km/h (4 Bft) SW 221 0 min 0,000 mm 0,0 UV-I 25 W/m 4,8 C -0,6 C 30,6 km/h (5 Bft) 100,00 %
11.12.2016 14:14 7,1 C 86 % 1019,5 hPa 0,0 l/m 23,9 km/h (4 Bft) W-SW 253 0 min 0,000 mm 0,0 UV-I 25 W/m 4,9 C -1,8 C 37,0 km/h (5 Bft) 100,00 %
11.12.2016 14:16 7,0 C 86 % 1019,5 hPa 0,0 l/m 25,0 km/h (4 Bft) W-SW 256 0 min 0,000 mm 0,0 UV-I 27 W/m 4,8 C -2,2 C 41,8 km/h (6 Bft) 100,00 %
11.12.2016 14:18 6,9 C 86 % 1019,5 hPa 0,0 l/m 24,7 km/h (4 Bft) W 266 0 min 0,000 mm 0,0 UV-I 35 W/m 4,7 C -2,3 C 35,4 km/h (5 Bft) 100,00 %
11.12.2016 14:20 6,9 C 86 % 1019,6 hPa 0,0 l/m 24,4 km/h (4 Bft) W-SW 257 0 min 0,000 mm 0,0 UV-I 44 W/m 4,7 C -2,2 C 38,6 km/h (5 Bft) 98,11 %
11.12.2016 14:22 6,9 C 87 % 1019,7 hPa 0,0 l/m 22,6 km/h (4 Bft) W 275 0 min 0,000 mm 0,0 UV-I 45 W/m 4,9 C -1,6 C 29,0 km/h (5 Bft) 100,00 %
11.12.2016 14:24 6,8 C 87 % 1019,7 hPa 0,0 l/m 18,8 km/h (3 Bft) W-SW 244 0 min 0,000 mm 0,0 UV-I 48 W/m 4,8 C -0,4 C 32,2 km/h (5 Bft) 100,00 %
11.12.2016 14:26 6,8 C 87 % 1019,8 hPa 0,0 l/m 23,3 km/h (4 Bft) SW 226 0 min 0,000 mm 0,0 UV-I 48 W/m 4,8 C -2,0 C 33,8 km/h (5 Bft) 100,00 %
11.12.2016 14:28 6,8 C 88 % 1019,9 hPa 0,0 l/m 17,4 km/h (3 Bft) W-SW 250 0 min 0,000 mm 0,0 UV-I 44 W/m 5,0 C 0,2 C 25,7 km/h (4 Bft) 97,56 %
11.12.2016 14:30 6,7 C 88 % 1019,9 hPa 0,0 l/m 16,6 km/h (3 Bft) W 259 0 min 0,000 mm 0,0 UV-I 45 W/m 4,9 C 0,4 C 20,9 km/h (4 Bft) 100,00 %
11.12.2016 14:32 6,7 C 88 % 1019,9 hPa 0,0 l/m 23,0 km/h (4 Bft) W-SW 253 0 min 0,000 mm 0,0 UV-I 40 W/m 4,9 C -2,0 C 40,2 km/h (6 Bft) 100,00 %
11.12.2016 14:34 6,7 C 88 % 1020,0 hPa 0,0 l/m 21,5 km/h (4 Bft) W-SW 257 0 min 0,000 mm 0,0 UV-I 32 W/m 4,9 C -1,5 C 33,8 km/h (5 Bft) 97,37 %
11.12.2016 14:36 6,7 C 88 % 1019,9 hPa 0,0 l/m 17,1 km/h (3 Bft) W-SW 238 0 min 0,000 mm 0,0 UV-I 28 W/m 4,9 C 0,2 C 29,0 km/h (5 Bft) 98,00 %
11.12.2016 14:38 6,7 C 88 % 1019,9 hPa 0,0 l/m 18,4 km/h (3 Bft) W 266 0 min 0,000 mm 0,0 UV-I 28 W/m 4,9 C -0,4 C 27,4 km/h (4 Bft) 100,00 %
11.12.2016 14:40 6,7 C 88 % 1019,9 hPa 0,0 l/m 13,8 km/h (3 Bft) W 264 0 min 0,000 mm 0,0 UV-I 34 W/m 4,9 C 1,7 C 20,9 km/h (4 Bft) 100,00 %
11.12.2016 14:42 6,7 C 88 % 1020,0 hPa 0,0 l/m 19,4 km/h (3 Bft) W 271 0 min 0,000 mm 0,0 UV-I 46 W/m 4,9 C -0,7 C 27,4 km/h (4 Bft) 100,00 %
11.12.2016 14:44 6,7 C 88 % 1020,0 hPa 0,0 l/m 20,6 km/h (4 Bft) W-SW 245 0 min 0,000 mm 0,0 UV-I 62 W/m 4,9 C -1,2 C 33,8 km/h (5 Bft) 100,00 %
11.12.2016 14:46 6,7 C 87 % 1020,0 hPa 0,0 l/m 23,8 km/h (4 Bft) W 265 0 min 0,000 mm 0,0 UV-I 64 W/m 4,7 C -2,3 C 40,2 km/h (6 Bft) 100,00 %
11.12.2016 14:48 6,7 C 87 % 1020,1 hPa 0,0 l/m 21,0 km/h (4 Bft) W 277 0 min 0,000 mm 0,0 UV-I 68 W/m 4,7 C -1,3 C 37,0 km/h (5 Bft) 100,00 %
11.12.2016 14:50 6,8 C 87 % 1020,2 hPa 0,0 l/m 14,3 km/h (3 Bft) W-SW 242 0 min 0,000 mm 0,0 UV-I 55 W/m 4,8 C 1,6 C 22,5 km/h (4 Bft) 100,00 %
11.12.2016 14:52 6,8 C 86 % 1020,3 hPa 0,0 l/m 20,4 km/h (4 Bft) W 262 0 min 0,000 mm 0,0 UV-I 46 W/m 4,6 C -1,0 C 29,0 km/h (5 Bft) 100,00 %
11.12.2016 14:54 6,8 C 86 % 1020,3 hPa 0,0 l/m 17,5 km/h (3 Bft) W-SW 250 0 min 0,000 mm 0,0 UV-I 42 W/m 4,6 C 0,1 C 25,7 km/h (4 Bft) 100,00 %
11.12.2016 14:56 6,8 C 86 % 1020,3 hPa 0,0 l/m 11,7 km/h (2 Bft) W-SW 242 0 min 0,000 mm 0,0 UV-I 46 W/m 4,6 C 3,0 C 20,9 km/h (4 Bft) 100,00 %
11.12.2016 14:58 6,8 C 86 % 1020,3 hPa 0,0 l/m 16,3 km/h (3 Bft) W-SW 252 0 min 0,000 mm 0,0 UV-I 31 W/m 4,6 C 0,7 C 29,0 km/h (5 Bft) 98,11 %
11.12.2016 15:00 6,8 C 86 % 1020,3 hPa 0,0 l/m 18,3 km/h (3 Bft) W-SW 248 0 min 0,051 mm 0,0 UV-I 21 W/m 4,6 C -0,2 C 32,2 km/h (5 Bft) 97,37 %
11.12.2016 15:02 6,8 C 86 % 1020,3 hPa 0,0 l/m 16,8 km/h (3 Bft) W 268 0 min 0,000 mm 0,0 UV-I 14 W/m 4,6 C 0,4 C 27,4 km/h (4 Bft) 100,00 %
11.12.2016 15:04 6,8 C 86 % 1020,3 hPa 0,0 l/m 16,7 km/h (3 Bft) W 266 0 min 0,000 mm 0,0 UV-I 14 W/m 4,6 C 0,5 C 25,7 km/h (4 Bft) 100,00 %
11.12.2016 15:06 6,8 C 85 % 1020,2 hPa 0,0 l/m 23,0 km/h (4 Bft) W-SW 252 0 min 0,000 mm 0,0 UV-I 14 W/m 4,5 C -1,9 C 33,8 km/h (5 Bft) 100,00 %
11.12.2016 15:08 6,8 C 86 % 1020,2 hPa 0,0 l/m 17,5 km/h (3 Bft) W 267 0 min 0,000 mm 0,0 UV-I 15 W/m 4,6 C 0,1 C 27,4 km/h (4 Bft) 98,28 %
11.12.2016 15:10 6,8 C 85 % 1020,2 hPa 0,0 l/m 20,7 km/h (4 Bft) W 279 0 min 0,000 mm 0,0 UV-I 13 W/m 4,5 C -1,1 C 33,8 km/h (5 Bft) 95,24 %
11.12.2016 15:12 6,8 C 85 % 1020,3 hPa 0,0 l/m 18,6 km/h (3 Bft) W-SW 257 0 min 0,000 mm 0,0 UV-I 13 W/m 4,5 C -0,3 C 32,2 km/h (5 Bft) 96,36 %
11.12.2016 15:14 6,8 C 85 % 1020,3 hPa 0,0 l/m 15,1 km/h (3 Bft) W 263 0 min 0,000 mm 0,0 UV-I 15 W/m 4,5 C 1,2 C 25,7 km/h (4 Bft) 97,44 %
11.12.2016 15:16 6,8 C 85 % 1020,2 hPa 0,0 l/m 18,0 km/h (3 Bft) W 279 0 min 0,000 mm 0,0 UV-I 18 W/m 4,5 C -0,1 C 33,8 km/h (5 Bft) 98,00 %
11.12.2016 15:18 6,8 C 85 % 1020,2 hPa 0,0 l/m 15,9 km/h (3 Bft) W 259 0 min 0,000 mm 0,0 UV-I 25 W/m 4,5 C 0,8 C 33,8 km/h (5 Bft) 97,87 %
11.12.2016 15:20 6,8 C 85 % 1020,2 hPa 0,0 l/m 16,0 km/h (3 Bft) NW 306 0 min 0,000 mm 0,0 UV-I 34 W/m 4,5 C 0,8 C 22,5 km/h (4 Bft) 97,73 %
11.12.2016 15:22 6,8 C 85 % 1020,1 hPa 0,0 l/m 18,5 km/h (3 Bft) W-SW 252 0 min 0,000 mm 0,0 UV-I 36 W/m 4,5 C -0,3 C 25,7 km/h (4 Bft) 95,45 %
11.12.2016 15:24 6,7 C 85 % 1020,3 hPa 0,0 l/m 21,0 km/h (4 Bft) W-SW 249 0 min 0,000 mm 0,0 UV-I 37 W/m 4,4 C -1,3 C 32,2 km/h (5 Bft) 98,11 %
11.12.2016 15:26 6,7 C 85 % 1020,2 hPa 0,0 l/m 18,1 km/h (3 Bft) SW 232 0 min 0,000 mm 0,0 UV-I 41 W/m 4,4 C -0,2 C 29,0 km/h (5 Bft) 97,73 %
11.12.2016 15:28 6,7 C 86 % 1020,3 hPa 0,0 l/m 19,8 km/h (3 Bft) W 281 0 min 0,000 mm 0,0 UV-I 41 W/m 4,5 C -0,9 C 27,4 km/h (4 Bft) 98,11 %
11.12.2016 15:30 6,7 C 86 % 1020,3 hPa 0,0 l/m 19,6 km/h (3 Bft) W-SW 244 2 min 0,000 mm 0,0 UV-I 43 W/m 4,5 C -0,8 C 29,0 km/h (5 Bft) 97,37 %
11.12.2016 15:32 6,7 C 86 % 1020,3 hPa 0,0 l/m 17,5 km/h (3 Bft) W 259 0 min 0,000 mm 0,0 UV-I 39 W/m 4,5 C 0,0 C 25,7 km/h (4 Bft) 98,21 %
11.12.2016 15:34 6,7 C 86 % 1020,3 hPa 0,0 l/m 17,5 km/h (3 Bft) W 262 2 min 0,000 mm 0,0 UV-I 38 W/m 4,5 C 0,0 C 22,5 km/h (4 Bft) 97,87 %
11.12.2016 15:36 6,7 C 86 % 1020,3 hPa 0,0 l/m 13,8 km/h (3 Bft) W 269 0 min 0,000 mm 0,0 UV-I 33 W/m 4,5 C 1,7 C 22,5 km/h (4 Bft) 95,12 %
11.12.2016 15:38 6,6 C 86 % 1020,4 hPa 0,0 l/m 14,5 km/h (3 Bft) W 264 0 min 0,000 mm 0,0 UV-I 31 W/m 4,4 C 1,3 C 25,7 km/h (4 Bft) 97,73 %
11.12.2016 15:40 6,6 C 86 % 1020,4 hPa 0,0 l/m 19,3 km/h (3 Bft) W 267 0 min 0,000 mm 0,0 UV-I 28 W/m 4,4 C -0,8 C 30,6 km/h (5 Bft) 96,23 %
11.12.2016 15:42 6,6 C 86 % 1020,5 hPa 0,0 l/m 17,2 km/h (3 Bft) NW 305 0 min 0,000 mm 0,0 UV-I 24 W/m 4,4 C 0,0 C 32,2 km/h (5 Bft) 95,45 %
11.12.2016 15:44 6,6 C 86 % 1020,6 hPa 0,0 l/m 13,0 km/h (3 Bft) W-SW 245 0 min 0,000 mm 0,0 UV-I 17 W/m 4,4 C 2,0 C 35,4 km/h (5 Bft) 98,00 %
11.12.2016 15:46 6,6 C 86 % 1020,5 hPa 0,0 l/m 16,4 km/h (3 Bft) W-SW 247 0 min 0,000 mm 0,0 UV-I 14 W/m 4,4 C 0,4 C 27,4 km/h (4 Bft) 97,44 %
11.12.2016 15:48 6,6 C 86 % 1020,6 hPa 0,0 l/m 16,3 km/h (3 Bft) W-SW 250 0 min 0,000 mm 0,0 UV-I 14 W/m 4,4 C 0,4 C 27,4 km/h (4 Bft) 100,00 %
11.12.2016 15:50 6,6 C 86 % 1020,5 hPa 0,0 l/m 15,5 km/h (3 Bft) W-SW 250 0 min 0,000 mm 0,0 UV-I 12 W/m 4,4 C 0,8 C 24,1 km/h (4 Bft) 95,92 %
11.12.2016 15:52 6,6 C 86 % 1020,5 hPa 0,0 l/m 15,0 km/h (3 Bft) W-SW 241 0 min 0,000 mm 0,0 UV-I 11 W/m 4,4 C 1,0 C 27,4 km/h (4 Bft) 97,56 %
11.12.2016 15:54 6,6 C 86 % 1020,6 hPa 0,0 l/m 14,2 km/h (3 Bft) W 270 0 min 0,000 mm 0,0 UV-I 11 W/m 4,4 C 1,4 C 20,9 km/h (4 Bft) 96,00 %
11.12.2016 15:56 6,6 C 86 % 1020,6 hPa 0,0 l/m 18,1 km/h (3 Bft) W-SW 246 0 min 0,000 mm 0,0 UV-I 10 W/m 4,4 C -0,4 C 33,8 km/h (5 Bft) 100,00 %
11.12.2016 15:58 6,6 C 86 % 1020,7 hPa 0,0 l/m 14,7 km/h (3 Bft) W 259 0 min 0,000 mm 0,0 UV-I 8 W/m 4,4 C 1,2 C 27,4 km/h (4 Bft) 100,00 %
11.12.2016 16:00 6,6 C 86 % 1020,7 hPa 0,0 l/m 12,1 km/h (2 Bft) W-SW 246 0 min 0,025 mm 0,0 UV-I 7 W/m 4,4 C 2,5 C 17,7 km/h (3 Bft) 98,21 %
11.12.2016 16:02 6,6 C 86 % 1020,7 hPa 0,0 l/m 14,2 km/h (3 Bft) W 261 0 min 0,000 mm 0,0 UV-I 7 W/m 4,4 C 1,4 C 22,5 km/h (4 Bft) 100,00 %
11.12.2016 16:04 6,5 C 86 % 1020,6 hPa 0,0 l/m 11,7 km/h (2 Bft) W-NW 301 0 min 0,000 mm 0,0 UV-I 5 W/m 4,3 C 2,7 C 17,7 km/h (3 Bft) 100,00 %
11.12.2016 16:06 6,5 C 86 % 1020,6 hPa 0,0 l/m 20,4 km/h (4 Bft) W 263 0 min 0,000 mm 0,0 UV-I 5 W/m 4,3 C -1,4 C 29,0 km/h (5 Bft) 97,14 %
11.12.2016 16:08 6,5 C 86 % 1020,6 hPa 0,0 l/m 17,0 km/h (3 Bft) W-NW 294 0 min 0,000 mm 0,0 UV-I 5 W/m 4,3 C -0,0 C 29,0 km/h (5 Bft) 98,21 %
11.12.2016 16:10 6,4 C 85 % 1020,6 hPa 0,0 l/m 13,3 km/h (3 Bft) W-SW 254 0 min 0,000 mm 0,0 UV-I 5 W/m 4,1 C 1,6 C 22,5 km/h (4 Bft) 97,73 %
11.12.2016 16:12 6,4 C 86 % 1020,7 hPa 0,0 l/m 19,0 km/h (3 Bft) W-SW 248 0 min 0,000 mm 0,0 UV-I 5 W/m 4,2 C -1,0 C 27,4 km/h (4 Bft) 97,73 %
11.12.2016 16:14 6,4 C 85 % 1020,7 hPa 0,0 l/m 16,2 km/h (3 Bft) W-SW 247 0 min 0,000 mm 0,0 UV-I 5 W/m 4,1 C 0,2 C 29,0 km/h (5 Bft) 100,00 %
11.12.2016 16:16 6,4 C 85 % 1020,7 hPa 0,0 l/m 15,9 km/h (3 Bft) W-SW 249 0 min 0,000 mm 0,0 UV-I 5 W/m 4,1 C 0,3 C 33,8 km/h (5 Bft) 100,00 %
11.12.2016 16:18 6,4 C 85 % 1020,7 hPa 0,0 l/m 13,6 km/h (3 Bft) W 266 0 min 0,000 mm 0,0 UV-I 5 W/m 4,1 C 1,5 C 20,9 km/h (4 Bft) 100,00 %
11.12.2016 16:20 6,4 C 85 % 1020,8 hPa 0,0 l/m 16,2 km/h (3 Bft) W 275 0 min 0,000 mm 0,0 UV-I 1 W/m 4,1 C 0,2 C 24,1 km/h (4 Bft) 100,00 %
11.12.2016 16:22 6,4 C 85 % 1020,8 hPa 0,0 l/m 12,2 km/h (2 Bft) W-SW 254 0 min 0,000 mm 0,0 UV-I 0 W/m 4,1 C 2,3 C 17,7 km/h (3 Bft) 97,37 %
11.12.2016 16:24 6,4 C 85 % 1020,8 hPa 0,0 l/m 13,4 km/h (3 Bft) W-SW 251 0 min 0,000 mm 0,0 UV-I 0 W/m 4,1 C 1,6 C 22,5 km/h (4 Bft) 100,00 %
11.12.2016 16:26 6,4 C 85 % 1020,8 hPa 0,0 l/m 13,3 km/h (3 Bft) W 271 0 min 0,000 mm 0,0 UV-I 0 W/m 4,1 C 1,6 C 17,7 km/h (3 Bft) 98,15 %
11.12.2016 16:28 6,3 C 85 % 1020,9 hPa 0,0 l/m 13,1 km/h (3 Bft) W-SW 248 0 min 0,000 mm 0,0 UV-I 0 W/m 4,0 C 1,6 C 19,3 km/h (3 Bft) 100,00 %
11.12.2016 16:30 6,3 C 85 % 1020,9 hPa 0,0 l/m 15,1 km/h (3 Bft) W-SW 248 0 min 0,000 mm 0,0 UV-I 0 W/m 4,0 C 0,6 C 25,7 km/h (4 Bft) 100,00 %
11.12.2016 16:32 6,3 C 85 % 1020,9 hPa 0,0 l/m 11,9 km/h (2 Bft) W-SW 252 0 min 0,000 mm 0,0 UV-I 0 W/m 4,0 C 2,3 C 17,7 km/h (3 Bft) 100,00 %
11.12.2016 16:34 6,3 C 85 % 1021,0 hPa 0,0 l/m 17,3 km/h (3 Bft) W-SW 252 0 min 0,000 mm 0,0 UV-I 0 W/m 4,0 C -0,4 C 24,1 km/h (4 Bft) 100,00 %
11.12.2016 16:36 6,3 C 85 % 1021,0 hPa 0,0 l/m 12,1 km/h (2 Bft) W-SW 247 0 min 0,000 mm 0,0 UV-I 0 W/m 4,0 C 2,2 C 19,3 km/h (3 Bft) 100,00 %
11.12.2016 16:38 6,3 C 85 % 1021,0 hPa 0,0 l/m 11,3 km/h (2 Bft) W-SW 248 0 min 0,000 mm 0,0 UV-I 0 W/m 4,0 C 2,7 C 14,5 km/h (3 Bft) 97,73 %
11.12.2016 16:40 6,3 C 85 % 1021,0 hPa 0,0 l/m 13,1 km/h (3 Bft) W-SW 240 0 min 0,000 mm 0,0 UV-I 0 W/m 4,0 C 1,6 C 22,5 km/h (4 Bft) 100,00 %
11.12.2016 16:42 6,3 C 85 % 1021,0 hPa 0,0 l/m 9,9 km/h (2 Bft) W-SW 255 0 min 0,000 mm 0,0 UV-I 0 W/m 4,0 C 3,6 C 14,5 km/h (3 Bft) 100,00 %
11.12.2016 16:44 6,3 C 85 % 1021,0 hPa 0,0 l/m 9,6 km/h (2 Bft) W-SW 248 0 min 0,000 mm 0,0 UV-I 0 W/m 4,0 C 3,8 C 16,1 km/h (3 Bft) 100,00 %
11.12.2016 16:46 6,2 C 86 % 1021,0 hPa 0,0 l/m 11,9 km/h (2 Bft) W-SW 251 0 min 0,000 mm 0,0 UV-I 0 W/m 4,0 C 2,2 C 16,1 km/h (3 Bft) 100,00 %
11.12.2016 16:48 6,2 C 86 % 1021,0 hPa 0,0 l/m 9,8 km/h (2 Bft) W-SW 258 0 min 0,000 mm 0,0 UV-I 0 W/m 4,0 C 3,5 C 16,1 km/h (3 Bft) 98,11 %
11.12.2016 16:50 6,2 C 86 % 1021,0 hPa 0,0 l/m 11,5 km/h (2 Bft) W 263 0 min 0,000 mm 0,0 UV-I 0 W/m 4,0 C 2,4 C 17,7 km/h (3 Bft) 100,00 %
11.12.2016 16:52 6,2 C 86 % 1021,1 hPa 0,0 l/m 12,0 km/h (2 Bft) W-SW 249 0 min 0,000 mm 0,0 UV-I 0 W/m 4,0 C 2,1 C 16,1 km/h (3 Bft) 100,00 %
11.12.2016 16:54 6,2 C 86 % 1021,0 hPa 0,0 l/m 9,6 km/h (2 Bft) W 261 0 min 0,000 mm 0,0 UV-I 0 W/m 4,0 C 3,7 C 14,5 km/h (3 Bft) 100,00 %
11.12.2016 16:56 6,2 C 86 % 1021,1 hPa 0,0 l/m 11,0 km/h (2 Bft) W-SW 254 0 min 0,000 mm 0,0 UV-I 0 W/m 4,0 C 2,7 C 16,1 km/h (3 Bft) 98,28 %
11.12.2016 16:58 6,2 C 86 % 1021,1 hPa 0,0 l/m 11,8 km/h (2 Bft) W-SW 254 0 min 0,000 mm 0,0 UV-I 0 W/m 4,0 C 2,3 C 16,1 km/h (3 Bft) 100,00 %
11.12.2016 17:00 6,2 C 86 % 1021,1 hPa 0,0 l/m 7,2 km/h (2 Bft) W-SW 249 0 min 0,025 mm 0,0 UV-I 0 W/m 4,0 C 5,5 C 11,3 km/h (2 Bft) 100,00 %
11.12.2016 17:02 6,2 C 86 % 1021,1 hPa 0,0 l/m 8,3 km/h (2 Bft) W-SW 247 0 min 0,000 mm 0,0 UV-I 0 W/m 4,0 C 4,6 C 11,3 km/h (2 Bft) 100,00 %
11.12.2016 17:04 6,2 C 86 % 1021,2 hPa 0,0 l/m 11,3 km/h (2 Bft) W 276 0 min 0,000 mm 0,0 UV-I 0 W/m 4,0 C 2,6 C 16,1 km/h (3 Bft) 100,00 %
11.12.2016 17:06 6,1 C 86 % 1021,2 hPa 0,0 l/m 10,0 km/h (2 Bft) W-SW 249 0 min 0,000 mm 0,0 UV-I 0 W/m 3,9 C 3,3 C 19,3 km/h (3 Bft) 100,00 %
11.12.2016 17:08 6,1 C 86 % 1021,1 hPa 0,0 l/m 12,4 km/h (3 Bft) W-SW 257 0 min 0,000 mm 0,0 UV-I 0 W/m 3,9 C 1,8 C 19,3 km/h (3 Bft) 100,00 %
11.12.2016 17:10 6,1 C 86 % 1021,1 hPa 0,0 l/m 12,9 km/h (3 Bft) W 275 0 min 0,000 mm 0,0 UV-I 0 W/m 3,9 C 1,5 C 17,7 km/h (3 Bft) 100,00 %
11.12.2016 17:12 6,2 C 86 % 1021,2 hPa 0,0 l/m 11,7 km/h (2 Bft) W 261 0 min 0,000 mm 0,0 UV-I 0 W/m 4,0 C 2,3 C 16,1 km/h (3 Bft) 97,87 %
11.12.2016 17:14 6,1 C 86 % 1021,2 hPa 0,0 l/m 12,8 km/h (3 Bft) W-SW 246 0 min 0,000 mm 0,0 UV-I 0 W/m 3,9 C 1,6 C 19,3 km/h (3 Bft) 100,00 %
11.12.2016 17:16 6,1 C 86 % 1021,2 hPa 0,0 l/m 14,2 km/h (3 Bft) W 259 0 min 0,000 mm 0,0 UV-I 0 W/m 3,9 C 0,8 C 19,3 km/h (3 Bft) 96,00 %
11.12.2016 17:18 6,1 C 86 % 1021,1 hPa 0,0 l/m 15,9 km/h (3 Bft) W 263 0 min 0,000 mm 0,0 UV-I 0 W/m 3,9 C -0,0 C 22,5 km/h (4 Bft) 97,37 %
11.12.2016 17:20 6,1 C 86 % 1021,1 hPa 0,0 l/m 10,8 km/h (2 Bft) W 269 0 min 0,000 mm 0,0 UV-I 0 W/m 3,9 C 2,8 C 16,1 km/h (3 Bft) 96,23 %
11.12.2016 17:22 6,1 C 86 % 1021,1 hPa 0,0 l/m 12,7 km/h (3 Bft) W-SW 257 0 min 0,000 mm 0,0 UV-I 0 W/m 3,9 C 1,6 C 16,1 km/h (3 Bft) 97,56 %
11.12.2016 17:24 6,1 C 86 % 1021,2 hPa 0,0 l/m 10,9 km/h (2 Bft) W 261 0 min 0,000 mm 0,0 UV-I 0 W/m 3,9 C 2,7 C 16,1 km/h (3 Bft) 98,11 %
11.12.2016 17:26 6,1 C 86 % 1021,2 hPa 0,0 l/m 11,0 km/h (2 Bft) W 280 0 min 0,000 mm 0,0 UV-I 0 W/m 3,9 C 2,6 C 17,7 km/h (3 Bft) 98,00 %
11.12.2016 17:28 6,1 C 86 % 1021,2 hPa 0,0 l/m 13,0 km/h (3 Bft) W 261 0 min 0,000 mm 0,0 UV-I 0 W/m 3,9 C 1,5 C 16,1 km/h (3 Bft) 97,37 %
11.12.2016 17:30 6,1 C 86 % 1021,2 hPa 0,0 l/m 10,5 km/h (2 Bft) W-SW 256 0 min 0,000 mm 0,0 UV-I 0 W/m 3,9 C 3,0 C 14,5 km/h (3 Bft) 97,56 %
11.12.2016 17:32 6,0 C 86 % 1021,2 hPa 0,0 l/m 11,8 km/h (2 Bft) W-SW 257 0 min 0,000 mm 0,0 UV-I 0 W/m 3,8 C 2,0 C 17,7 km/h (3 Bft) 97,87 %
11.12.2016 17:34 6,0 C 86 % 1021,3 hPa 0,0 l/m 12,8 km/h (3 Bft) W-SW 254 0 min 0,000 mm 0,0 UV-I 0 W/m 3,8 C 1,4 C 19,3 km/h (3 Bft) 98,21 %
11.12.2016 17:36 6,0 C 86 % 1021,3 hPa 0,0 l/m 15,7 km/h (3 Bft) W-SW 245 0 min 0,000 mm 0,0 UV-I 0 W/m 3,8 C -0,1 C 24,1 km/h (4 Bft) 94,74 %
11.12.2016 17:38 6,0 C 86 % 1021,2 hPa 0,0 l/m 15,5 km/h (3 Bft) W-SW 244 0 min 0,000 mm 0,0 UV-I 0 W/m 3,8 C 0,0 C 20,9 km/h (4 Bft) 96,43 %
11.12.2016 17:40 6,1 C 85 % 1021,2 hPa 0,0 l/m 15,5 km/h (3 Bft) W-SW 258 0 min 0,000 mm 0,0 UV-I 0 W/m 3,8 C 0,2 C 20,9 km/h (4 Bft) 97,56 %
11.12.2016 17:42 6,0 C 85 % 1021,2 hPa 0,0 l/m 14,4 km/h (3 Bft) W-SW 249 0 min 0,000 mm 0,0 UV-I 0 W/m 3,7 C 0,6 C 19,3 km/h (3 Bft) 98,21 %
11.12.2016 17:44 6,0 C 85 % 1021,3 hPa 0,0 l/m 14,6 km/h (3 Bft) W-SW 252 0 min 0,000 mm 0,0 UV-I 0 W/m 3,7 C 0,5 C 20,9 km/h (4 Bft) 95,12 %
11.12.2016 17:46 6,0 C 85 % 1021,3 hPa 0,0 l/m 17,4 km/h (3 Bft) W-SW 242 0 min 0,000 mm 0,0 UV-I 0 W/m 3,7 C -0,8 C 27,4 km/h (4 Bft) 97,62 %
11.12.2016 17:48 6,0 C 85 % 1021,4 hPa 0,0 l/m 17,4 km/h (3 Bft) W 267 0 min 0,000 mm 0,0 UV-I 0 W/m 3,7 C -0,8 C 24,1 km/h (4 Bft) 98,18 %
11.12.2016 17:50 6,0 C 85 % 1021,3 hPa 0,0 l/m 17,0 km/h (3 Bft) W 262 0 min 0,000 mm 0,0 UV-I 0 W/m 3,7 C -0,6 C 25,7 km/h (4 Bft) 97,62 %
11.12.2016 17:52 6,0 C 85 % 1021,3 hPa 0,0 l/m 18,0 km/h (3 Bft) W 261 0 min 0,000 mm 0,0 UV-I 0 W/m 3,7 C -1,1 C 22,5 km/h (4 Bft) 98,21 %
11.12.2016 17:54 6,1 C 85 % 1021,3 hPa 0,0 l/m 13,6 km/h (3 Bft) W-SW 244 0 min 0,000 mm 0,0 UV-I 0 W/m 3,8 C 1,1 C 24,1 km/h (4 Bft) 100,00 %
11.12.2016 17:56 6,1 C 85 % 1021,3 hPa 0,0 l/m 13,5 km/h (3 Bft) W-NW 286 0 min 0,000 mm 0,0 UV-I 0 W/m 3,8 C 1,2 C 19,3 km/h (3 Bft) 97,37 %
11.12.2016 17:58 6,0 C 85 % 1021,3 hPa 0,0 l/m 16,1 km/h (3 Bft) W 260 0 min 0,000 mm 0,0 UV-I 0 W/m 3,7 C -0,2 C 22,5 km/h (4 Bft) 100,00 %
11.12.2016 18:00 6,0 C 85 % 1021,3 hPa 0,0 l/m 14,0 km/h (3 Bft) W 259 0 min 0,000 mm 0,0 UV-I 0 W/m 3,7 C 0,8 C 20,9 km/h (4 Bft) 100,00 %
11.12.2016 18:02 6,0 C 85 % 1021,3 hPa 0,0 l/m 13,6 km/h (3 Bft) W 263 0 min 0,026 mm 0,0 UV-I 0 W/m 3,7 C 1,0 C 17,7 km/h (3 Bft) 100,00 %
11.12.2016 18:04 6,0 C 85 % 1021,2 hPa 0,0 l/m 15,4 km/h (3 Bft) W-SW 254 0 min 0,000 mm 0,0 UV-I 0 W/m 3,7 C 0,1 C 22,5 km/h (4 Bft) 97,56 %
11.12.2016 18:06 6,0 C 85 % 1021,2 hPa 0,0 l/m 13,7 km/h (3 Bft) SW 231 0 min 0,000 mm 0,0 UV-I 0 W/m 3,7 C 1,0 C 19,3 km/h (3 Bft) 100,00 %
11.12.2016 18:08 6,0 C 85 % 1021,1 hPa 0,0 l/m 17,8 km/h (3 Bft) SW 215 0 min 0,000 mm 0,0 UV-I 0 W/m 3,7 C -1,0 C 25,7 km/h (4 Bft) 97,73 %
11.12.2016 18:10 5,9 C 85 % 1021,1 hPa 0,0 l/m 15,2 km/h (3 Bft) S-SW 194 0 min 0,000 mm 0,0 UV-I 0 W/m 3,6 C 0,1 C 25,7 km/h (4 Bft) 100,00 %
11.12.2016 18:12 5,9 C 85 % 1021,1 hPa 0,0 l/m 15,1 km/h (3 Bft) W-SW 247 0 min 0,000 mm 0,0 UV-I 0 W/m 3,6 C 0,1 C 24,1 km/h (4 Bft) 100,00 %
11.12.2016 18:14 6,0 C 85 % 1021,1 hPa 0,0 l/m 17,5 km/h (3 Bft) W-SW 240 0 min 0,000 mm 0,0 UV-I 0 W/m 3,7 C -0,9 C 27,4 km/h (4 Bft) 98,00 %
11.12.2016 18:16 6,0 C 85 % 1021,1 hPa 0,0 l/m 14,8 km/h (3 Bft) W-SW 240 0 min 0,000 mm 0,0 UV-I 0 W/m 3,7 C 0,4 C 19,3 km/h (3 Bft) 100,00 %
11.12.2016 18:18 5,9 C 85 % 1021,1 hPa 0,0 l/m 16,5 km/h (3 Bft) W 273 0 min 0,000 mm 0,0 UV-I 0 W/m 3,6 C -0,5 C 24,1 km/h (4 Bft) 100,00 %
11.12.2016 18:20 5,9 C 85 % 1021,1 hPa 0,0 l/m 16,7 km/h (3 Bft) W-NW 285 0 min 0,000 mm 0,0 UV-I 0 W/m 3,6 C -0,6 C 25,7 km/h (4 Bft) 100,00 %
11.12.2016 18:22 5,9 C 85 % 1021,0 hPa 0,0 l/m 15,1 km/h (3 Bft) W 263 0 min 0,000 mm 0,0 UV-I 0 W/m 3,6 C 0,1 C 20,9 km/h (4 Bft) 98,11 %
11.12.2016 18:24 5,9 C 85 % 1021,0 hPa 0,0 l/m 17,6 km/h (3 Bft) W-SW 254 0 min 0,000 mm 0,0 UV-I 0 W/m 3,6 C -1,0 C 29,0 km/h (5 Bft) 100,00 %
11.12.2016 18:26 5,9 C 85 % 1021,1 hPa 0,0 l/m 12,6 km/h (3 Bft) W-SW 252 0 min 0,000 mm 0,0 UV-I 0 W/m 3,6 C 1,4 C 20,9 km/h (4 Bft) 98,08 %
11.12.2016 18:28 5,9 C 85 % 1021,1 hPa 0,0 l/m 19,6 km/h (3 Bft) W 264 0 min 0,000 mm 0,0 UV-I 0 W/m 3,6 C -1,9 C 29,0 km/h (5 Bft) 97,87 %
11.12.2016 18:30 6,0 C 85 % 1021,2 hPa 0,0 l/m 16,2 km/h (3 Bft) W-SW 246 0 min 0,000 mm 0,0 UV-I 0 W/m 3,7 C -0,3 C 24,1 km/h (4 Bft) 95,24 %
11.12.2016 18:32 6,0 C 85 % 1021,2 hPa 0,0 l/m 16,1 km/h (3 Bft) W 266 0 min 0,000 mm 0,0 UV-I 0 W/m 3,7 C -0,2 C 27,4 km/h (4 Bft) 100,00 %
11.12.2016 18:34 6,1 C 85 % 1021,2 hPa 0,0 l/m 16,7 km/h (3 Bft) W-SW 240 0 min 0,000 mm 0,0 UV-I 0 W/m 3,8 C -0,4 C 27,4 km/h (4 Bft) 100,00 %
11.12.2016 18:36 6,1 C 85 % 1021,1 hPa 0,0 l/m 22,4 km/h (4 Bft) W 261 0 min 0,000 mm 0,0 UV-I 0 W/m 3,8 C -2,6 C 40,2 km/h (6 Bft) 100,00 %
11.12.2016 18:38 6,1 C 85 % 1021,1 hPa 0,0 l/m 22,7 km/h (4 Bft) SW 236 0 min 0,000 mm 0,0 UV-I 0 W/m 3,8 C -2,7 C 29,0 km/h (5 Bft) 100,00 %
11.12.2016 18:40 6,1 C 85 % 1021,1 hPa 0,0 l/m 17,5 km/h (3 Bft) W-SW 254 0 min 0,000 mm 0,0 UV-I 0 W/m 3,8 C -0,7 C 24,1 km/h (4 Bft) 100,00 %
11.12.2016 18:42 6,2 C 85 % 1021,2 hPa 0,0 l/m 12,5 km/h (3 Bft) SW 236 0 min 0,000 mm 0,0 UV-I 0 W/m 3,9 C 1,8 C 17,7 km/h (3 Bft) 100,00 %
11.12.2016 18:44 6,2 C 85 % 1021,2 hPa 0,0 l/m 16,9 km/h (3 Bft) W 269 0 min 0,000 mm 0,0 UV-I 0 W/m 3,9 C -0,4 C 22,5 km/h (4 Bft) 95,65 %
11.12.2016 18:46 6,2 C 85 % 1021,1 hPa 0,0 l/m 15,9 km/h (3 Bft) W-NW 289 0 min 0,000 mm 0,0 UV-I 0 W/m 3,9 C 0,1 C 22,5 km/h (4 Bft) 100,00 %
11.12.2016 18:48 6,2 C 85 % 1021,1 hPa 0,0 l/m 17,1 km/h (3 Bft) W-SW 249 0 min 0,000 mm 0,0 UV-I 0 W/m 3,9 C -0,4 C 25,7 km/h (4 Bft) 100,00 %
11.12.2016 18:50 6,2 C 85 % 1021,1 hPa 0,0 l/m 16,8 km/h (3 Bft) W 269 0 min 0,000 mm 0,0 UV-I 0 W/m 3,9 C -0,3 C 27,4 km/h (4 Bft) 100,00 %
11.12.2016 18:52 6,2 C 85 % 1021,1 hPa 0,0 l/m 23,1 km/h (4 Bft) W 262 0 min 0,000 mm 0,0 UV-I 0 W/m 3,9 C -2,7 C 33,8 km/h (5 Bft) 100,00 %
11.12.2016 18:54 6,2 C 85 % 1021,1 hPa 0,0 l/m 18,4 km/h (3 Bft) W-SW 240 0 min 0,000 mm 0,0 UV-I 0 W/m 3,9 C -1,0 C 27,4 km/h (4 Bft) 100,00 %
11.12.2016 18:56 6,2 C 85 % 1021,1 hPa 0,0 l/m 17,2 km/h (3 Bft) W 272 0 min 0,000 mm 0,0 UV-I 0 W/m 3,9 C -0,5 C 22,5 km/h (4 Bft) 100,00 %
11.12.2016 18:58 6,2 C 85 % 1021,1 hPa 0,0 l/m 19,7 km/h (3 Bft) W 259 0 min 0,000 mm 0,0 UV-I 0 W/m 3,9 C -1,5 C 29,0 km/h (5 Bft) 100,00 %
11.12.2016 19:00 6,2 C 85 % 1021,2 hPa 0,0 l/m 17,5 km/h (3 Bft) W 259 0 min 0,000 mm 0,0 UV-I 0 W/m 3,9 C -0,6 C 30,6 km/h (5 Bft) 100,00 %
11.12.2016 19:02 6,2 C 85 % 1021,2 hPa 0,0 l/m 16,6 km/h (3 Bft) W-SW 249 0 min 0,025 mm 0,0 UV-I 0 W/m 3,9 C -0,2 C 25,7 km/h (4 Bft) 98,21 %
11.12.2016 19:04 6,2 C 85 % 1021,2 hPa 0,0 l/m 16,4 km/h (3 Bft) W-SW 255 0 min 0,000 mm 0,0 UV-I 0 W/m 3,9 C -0,1 C 22,5 km/h (4 Bft) 97,44 %
11.12.2016 19:06 6,2 C 85 % 1021,1 hPa 0,0 l/m 15,3 km/h (3 Bft) W 271 0 min 0,000 mm 0,0 UV-I 0 W/m 3,9 C 0,4 C 22,5 km/h (4 Bft) 100,00 %
11.12.2016 19:08 6,2 C 85 % 1021,1 hPa 0,0 l/m 19,6 km/h (3 Bft) W-SW 255 0 min 0,000 mm 0,0 UV-I 0 W/m 3,9 C -1,5 C 30,6 km/h (5 Bft) 100,00 %
11.12.2016 19:10 6,2 C 85 % 1021,1 hPa 0,0 l/m 19,7 km/h (3 Bft) W-SW 243 0 min 0,000 mm 0,0 UV-I 0 W/m 3,9 C -1,5 C 30,6 km/h (5 Bft) 100,00 %
11.12.2016 19:12 6,2 C 85 % 1021,1 hPa 0,0 l/m 15,6 km/h (3 Bft) SW 225 0 min 0,000 mm 0,0 UV-I 0 W/m 3,9 C 0,2 C 24,1 km/h (4 Bft) 100,00 %
11.12.2016 19:14 6,2 C 85 % 1021,1 hPa 0,0 l/m 17,7 km/h (3 Bft) W-SW 244 0 min 0,000 mm 0,0 UV-I 0 W/m 3,9 C -0,7 C 24,1 km/h (4 Bft) 97,56 %
11.12.2016 19:16 6,2 C 85 % 1021,0 hPa 0,0 l/m 16,7 km/h (3 Bft) W 276 0 min 0,000 mm 0,0 UV-I 0 W/m 3,9 C -0,3 C 32,2 km/h (5 Bft) 98,11 %
11.12.2016 19:18 6,2 C 85 % 1021,1 hPa 0,0 l/m 17,7 km/h (3 Bft) W 269 0 min 0,000 mm 0,0 UV-I 0 W/m 3,9 C -0,7 C 29,0 km/h (5 Bft) 100,00 %
11.12.2016 19:20 6,2 C 85 % 1021,1 hPa 0,0 l/m 16,7 km/h (3 Bft) W 269 0 min 0,000 mm 0,0 UV-I 0 W/m 3,9 C -0,3 C 22,5 km/h (4 Bft) 100,00 %
11.12.2016 19:22 6,2 C 85 % 1021,2 hPa 0,0 l/m 15,7 km/h (3 Bft) W-NW 291 0 min 0,000 mm 0,0 UV-I 0 W/m 3,9 C 0,2 C 20,9 km/h (4 Bft) 100,00 %
11.12.2016 19:24 6,2 C 84 % 1021,2 hPa 0,0 l/m 14,1 km/h (3 Bft) W-SW 256 0 min 0,000 mm 0,0 UV-I 0 W/m 3,7 C 1,0 C 17,7 km/h (3 Bft) 96,00 %
11.12.2016 19:26 6,2 C 84 % 1021,3 hPa 0,0 l/m 16,5 km/h (3 Bft) W-SW 257 0 min 0,000 mm 0,0 UV-I 0 W/m 3,7 C -0,2 C 24,1 km/h (4 Bft) 100,00 %
11.12.2016 19:28 6,1 C 84 % 1021,3 hPa 0,0 l/m 16,4 km/h (3 Bft) W-SW 250 0 min 0,000 mm 0,0 UV-I 0 W/m 3,6 C -0,3 C 24,1 km/h (4 Bft) 96,92 %
11.12.2016 19:30 6,1 C 84 % 1021,2 hPa 0,0 l/m 17,5 km/h (3 Bft) W 262 0 min 0,000 mm 0,0 UV-I 0 W/m 3,6 C -0,7 C 30,6 km/h (5 Bft) 98,00 %
11.12.2016 19:32 6,1 C 84 % 1021,2 hPa 0,0 l/m 19,4 km/h (3 Bft) SW 234 0 min 0,000 mm 0,0 UV-I 0 W/m 3,6 C -1,5 C 30,6 km/h (5 Bft) 95,45 %
11.12.2016 19:34 6,1 C 84 % 1021,2 hPa 0,0 l/m 13,9 km/h (3 Bft) SW 230 0 min 0,000 mm 0,0 UV-I 0 W/m 3,6 C 1,0 C 17,7 km/h (3 Bft) 97,73 %
11.12.2016 19:36 6,1 C 84 % 1021,1 hPa 0,0 l/m 15,1 km/h (3 Bft) W 261 0 min 0,000 mm 0,0 UV-I 0 W/m 3,6 C 0,4 C 25,7 km/h (4 Bft) 98,21 %
11.12.2016 19:38 6,1 C 84 % 1021,2 hPa 0,0 l/m 17,9 km/h (3 Bft) W 261 0 min 0,000 mm 0,0 UV-I 0 W/m 3,6 C -0,9 C 29,0 km/h (5 Bft) 97,73 %
11.12.2016 19:40 6,1 C 84 % 1021,1 hPa 0,0 l/m 15,9 km/h (3 Bft) W-SW 251 0 min 0,000 mm 0,0 UV-I 0 W/m 3,6 C -0,0 C 20,9 km/h (4 Bft) 95,74 %
11.12.2016 19:42 6,1 C 84 % 1021,1 hPa 0,0 l/m 13,7 km/h (3 Bft) W 266 0 min 0,000 mm 0,0 UV-I 0 W/m 3,6 C 1,1 C 22,5 km/h (4 Bft) 98,00 %
11.12.2016 19:44 6,1 C 84 % 1021,1 hPa 0,0 l/m 14,7 km/h (3 Bft) W 261 0 min 0,000 mm 0,0 UV-I 0 W/m 3,6 C 0,6 C 22,5 km/h (4 Bft) 97,73 %
11.12.2016 19:46 6,1 C 84 % 1021,1 hPa 0,0 l/m 14,8 km/h (3 Bft) W-SW 254 0 min 0,000 mm 0,0 UV-I 0 W/m 3,6 C 0,5 C 24,1 km/h (4 Bft) 95,24 %
11.12.2016 19:48 6,1 C 84 % 1021,1 hPa 0,0 l/m 19,7 km/h (3 Bft) W-SW 257 0 min 0,000 mm 0,0 UV-I 0 W/m 3,6 C -1,6 C 27,4 km/h (4 Bft) 97,73 %
11.12.2016 19:50 6,1 C 84 % 1020,9 hPa 0,0 l/m 22,6 km/h (4 Bft) W-SW 242 0 min 0,000 mm 0,0 UV-I 0 W/m 3,6 C -2,7 C 32,2 km/h (5 Bft) 98,11 %
11.12.2016 19:52 6,1 C 84 % 1020,9 hPa 0,0 l/m 18,1 km/h (3 Bft) W-SW 257 0 min 0,000 mm 0,0 UV-I 0 W/m 3,6 C -1,0 C 22,5 km/h (4 Bft) 97,56 %
11.12.2016 19:54 6,1 C 84 % 1020,9 hPa 0,0 l/m 17,6 km/h (3 Bft) W-SW 253 0 min 0,000 mm 0,0 UV-I 0 W/m 3,6 C -0,8 C 22,5 km/h (4 Bft) 98,00 %
11.12.2016 19:56 6,1 C 84 % 1020,9 hPa 0,0 l/m 17,8 km/h (3 Bft) W 269 0 min 0,000 mm 0,0 UV-I 0 W/m 3,6 C -0,9 C 25,7 km/h (4 Bft) 97,87 %
11.12.2016 19:58 6,1 C 84 % 1020,9 hPa 0,0 l/m 17,5 km/h (3 Bft) W-SW 249 0 min 0,000 mm 0,0 UV-I 0 W/m 3,6 C -0,7 C 24,1 km/h (4 Bft) 96,23 %
11.12.2016 20:00 6,1 C 84 % 1020,9 hPa 0,0 l/m 17,4 km/h (3 Bft) W 265 0 min 0,000 mm 0,0 UV-I 0 W/m 3,6 C -0,7 C 22,5 km/h (4 Bft) 100,00 %
11.12.2016 20:02 6,1 C 84 % 1020,9 hPa 0,0 l/m 16,2 km/h (3 Bft) W-SW 239 0 min 0,026 mm 0,0 UV-I 0 W/m 3,6 C -0,2 C 25,7 km/h (4 Bft) 100,00 %
11.12.2016 20:04 6,1 C 84 % 1020,9 hPa 0,0 l/m 14,8 km/h (3 Bft) W-SW 243 0 min 0,000 mm 0,0 UV-I 0 W/m 3,6 C 0,5 C 19,3 km/h (3 Bft) 100,00 %
11.12.2016 20:06 6,1 C 84 % 1020,9 hPa 0,0 l/m 15,4 km/h (3 Bft) W-SW 253 0 min 0,000 mm 0,0 UV-I 0 W/m 3,6 C 0,2 C 22,5 km/h (4 Bft) 97,37 %
11.12.2016 20:08 6,1 C 84 % 1020,9 hPa 0,0 l/m 17,6 km/h (3 Bft) W 261 0 min 0,000 mm 0,0 UV-I 0 W/m 3,6 C -0,8 C 24,1 km/h (4 Bft) 100,00 %
11.12.2016 20:10 6,0 C 84 % 1021,0 hPa 0,0 l/m 16,7 km/h (3 Bft) W 276 0 min 0,000 mm 0,0 UV-I 0 W/m 3,5 C -0,5 C 25,7 km/h (4 Bft) 100,00 %
11.12.2016 20:12 6,0 C 84 % 1020,9 hPa 0,0 l/m 16,3 km/h (3 Bft) W-SW 257 0 min 0,000 mm 0,0 UV-I 0 W/m 3,5 C -0,3 C 25,7 km/h (4 Bft) 100,00 %
11.12.2016 20:14 6,0 C 84 % 1020,9 hPa 0,0 l/m 13,3 km/h (3 Bft) W-SW 248 0 min 0,000 mm 0,0 UV-I 0 W/m 3,5 C 1,2 C 20,9 km/h (4 Bft) 97,37 %
11.12.2016 20:16 6,0 C 84 % 1021,0 hPa 0,0 l/m 14,8 km/h (3 Bft) W 263 0 min 0,000 mm 0,0 UV-I 0 W/m 3,5 C 0,4 C 20,9 km/h (4 Bft) 100,00 %
11.12.2016 20:18 6,0 C 84 % 1021,0 hPa 0,0 l/m 14,8 km/h (3 Bft) W 261 0 min 0,000 mm 0,0 UV-I 0 W/m 3,5 C 0,4 C 22,5 km/h (4 Bft) 100,00 %
11.12.2016 20:20 6,0 C 84 % 1021,1 hPa 0,0 l/m 13,4 km/h (3 Bft) W-SW 250 0 min 0,000 mm 0,0 UV-I 0 W/m 3,5 C 1,1 C 17,7 km/h (3 Bft) 100,00 %
11.12.2016 20:22 6,0 C 84 % 1021,0 hPa 0,0 l/m 15,9 km/h (3 Bft) W 261 0 min 0,000 mm 0,0 UV-I 0 W/m 3,5 C -0,1 C 25,7 km/h (4 Bft) 100,00 %
11.12.2016 20:24 6,0 C 84 % 1021,1 hPa 0,0 l/m 18,9 km/h (3 Bft) W-SW 246 0 min 0,000 mm 0,0 UV-I 0 W/m 3,5 C -1,4 C 29,0 km/h (5 Bft) 100,00 %
11.12.2016 20:26 6,1 C 84 % 1021,1 hPa 0,0 l/m 17,8 km/h (3 Bft) W 260 0 min 0,000 mm 0,0 UV-I 0 W/m 3,6 C -0,9 C 30,6 km/h (5 Bft) 100,00 %
11.12.2016 20:28 6,1 C 84 % 1021,1 hPa 0,0 l/m 18,3 km/h (3 Bft) W 266 0 min 0,000 mm 0,0 UV-I 0 W/m 3,6 C -1,1 C 30,6 km/h (5 Bft) 100,00 %
11.12.2016 20:30 6,1 C 84 % 1021,1 hPa 0,0 l/m 16,7 km/h (3 Bft) W 265 0 min 0,000 mm 0,0 UV-I 0 W/m 3,6 C -0,4 C 22,5 km/h (4 Bft) 100,00 %
11.12.2016 20:32 6,1 C 84 % 1021,1 hPa 0,0 l/m 18,7 km/h (3 Bft) W-SW 242 0 min 0,000 mm 0,0 UV-I 0 W/m 3,6 C -1,2 C 29,0 km/h (5 Bft) 100,00 %
11.12.2016 20:34 6,1 C 84 % 1021,1 hPa 0,0 l/m 14,9 km/h (3 Bft) W-SW 255 0 min 0,000 mm 0,0 UV-I 0 W/m 3,6 C 0,5 C 24,1 km/h (4 Bft) 100,00 %
11.12.2016 20:36 6,1 C 84 % 1021,1 hPa 0,0 l/m 11,8 km/h (2 Bft) W-SW 244 0 min 0,000 mm 0,0 UV-I 0 W/m 3,6 C 2,1 C 19,3 km/h (3 Bft) 100,00 %
11.12.2016 20:38 6,1 C 84 % 1021,0 hPa 0,0 l/m 16,1 km/h (3 Bft) W-SW 256 0 min 0,000 mm 0,0 UV-I 0 W/m 3,6 C -0,1 C 30,6 km/h (5 Bft) 98,11 %
11.12.2016 20:40 6,1 C 83 % 1021,0 hPa 0,0 l/m 20,9 km/h (4 Bft) W 263 0 min 0,000 mm 0,0 UV-I 0 W/m 3,4 C -2,1 C 32,2 km/h (5 Bft) 100,00 %
11.12.2016 20:42 6,1 C 83 % 1021,1 hPa 0,0 l/m 16,1 km/h (3 Bft) W-SW 242 0 min 0,000 mm 0,0 UV-I 0 W/m 3,4 C -0,1 C 20,9 km/h (4 Bft) 100,00 %
11.12.2016 20:44 6,1 C 83 % 1021,0 hPa 0,0 l/m 16,2 km/h (3 Bft) W-SW 250 0 min 0,000 mm 0,0 UV-I 0 W/m 3,4 C -0,2 C 27,4 km/h (4 Bft) 100,00 %
11.12.2016 20:46 6,1 C 83 % 1021,0 hPa 0,0 l/m 18,1 km/h (3 Bft) W-SW 244 0 min 0,000 mm 0,0 UV-I 0 W/m 3,4 C -1,0 C 29,0 km/h (5 Bft) 100,00 %
11.12.2016 20:48 6,1 C 83 % 1020,9 hPa 0,0 l/m 18,2 km/h (3 Bft) W-SW 252 0 min 0,000 mm 0,0 UV-I 0 W/m 3,4 C -1,0 C 27,4 km/h (4 Bft) 100,00 %
11.12.2016 20:50 6,1 C 83 % 1020,9 hPa 0,0 l/m 21,4 km/h (4 Bft) W-SW 258 0 min 0,000 mm 0,0 UV-I 0 W/m 3,4 C -2,3 C 27,4 km/h (4 Bft) 100,00 %
11.12.2016 20:52 6,1 C 83 % 1020,9 hPa 0,0 l/m 22,4 km/h (4 Bft) W-NW 296 0 min 0,000 mm 0,0 UV-I 0 W/m 3,4 C -2,6 C 35,4 km/h (5 Bft) 100,00 %
11.12.2016 20:54 6,1 C 82 % 1020,9 hPa 0,0 l/m 23,7 km/h (4 Bft) W 269 0 min 0,000 mm 0,0 UV-I 0 W/m 3,3 C -3,0 C 37,0 km/h (5 Bft) 100,00 %
11.12.2016 20:56 6,2 C 82 % 1020,9 hPa 0,0 l/m 20,2 km/h (4 Bft) W-SW 248 0 min 0,000 mm 0,0 UV-I 0 W/m 3,4 C -1,7 C 30,6 km/h (5 Bft) 100,00 %
11.12.2016 20:58 6,2 C 82 % 1020,8 hPa 0,0 l/m 18,1 km/h (3 Bft) W 273 0 min 0,000 mm 0,0 UV-I 0 W/m 3,4 C -0,9 C 25,7 km/h (4 Bft) 100,00 %
11.12.2016 21:00 6,2 C 82 % 1020,8 hPa 0,0 l/m 18,5 km/h (3 Bft) W-SW 248 0 min 0,000 mm 0,0 UV-I 0 W/m 3,4 C -1,0 C 24,1 km/h (4 Bft) 100,00 %
11.12.2016 21:02 6,2 C 82 % 1020,8 hPa 0,0 l/m 22,2 km/h (4 Bft) W 265 0 min 0,025 mm 0,0 UV-I 0 W/m 3,4 C -2,4 C 35,4 km/h (5 Bft) 100,00 %
11.12.2016 21:04 6,1 C 82 % 1020,8 hPa 0,0 l/m 21,0 km/h (4 Bft) W 265 0 min 0,000 mm 0,0 UV-I 0 W/m 3,3 C -2,1 C 27,4 km/h (4 Bft) 98,18 %
11.12.2016 21:06 6,1 C 82 % 1020,8 hPa 0,0 l/m 20,3 km/h (4 Bft) W 273 0 min 0,000 mm 0,0 UV-I 0 W/m 3,3 C -1,9 C 29,0 km/h (5 Bft) 100,00 %
11.12.2016 21:08 6,1 C 82 % 1020,8 hPa 0,0 l/m 15,6 km/h (3 Bft) W-SW 243 0 min 0,000 mm 0,0 UV-I 0 W/m 3,3 C 0,1 C 24,1 km/h (4 Bft) 100,00 %
11.12.2016 21:10 6,1 C 82 % 1020,8 hPa 0,0 l/m 19,9 km/h (4 Bft) W 259 0 min 0,000 mm 0,0 UV-I 0 W/m 3,3 C -1,7 C 25,7 km/h (4 Bft) 100,00 %
11.12.2016 21:12 6,1 C 82 % 1020,8 hPa 0,0 l/m 16,5 km/h (3 Bft) W-SW 249 0 min 0,000 mm 0,0 UV-I 0 W/m 3,3 C -0,3 C 27,4 km/h (4 Bft) 100,00 %
11.12.2016 21:14 6,1 C 82 % 1020,8 hPa 0,0 l/m 17,9 km/h (3 Bft) W-SW 246 0 min 0,000 mm 0,0 UV-I 0 W/m 3,3 C -0,9 C 29,0 km/h (5 Bft) 100,00 %
11.12.2016 21:16 6,2 C 81 % 1020,8 hPa 0,0 l/m 22,8 km/h (4 Bft) SW 226 0 min 0,000 mm 0,0 UV-I 0 W/m 3,2 C -2,6 C 35,4 km/h (5 Bft) 100,00 %
11.12.2016 21:18 6,2 C 81 % 1020,8 hPa 0,0 l/m 17,9 km/h (3 Bft) W-SW 257 0 min 0,000 mm 0,0 UV-I 0 W/m 3,2 C -0,8 C 27,4 km/h (4 Bft) 100,00 %
11.12.2016 21:20 6,2 C 81 % 1020,8 hPa 0,0 l/m 17,8 km/h (3 Bft) W-SW 243 0 min 0,000 mm 0,0 UV-I 0 W/m 3,2 C -0,7 C 27,4 km/h (4 Bft) 100,00 %
11.12.2016 21:22 6,2 C 81 % 1020,8 hPa 0,0 l/m 16,6 km/h (3 Bft) W-SW 252 0 min 0,000 mm 0,0 UV-I 0 W/m 3,2 C -0,2 C 25,7 km/h (4 Bft) 100,00 %
11.12.2016 21:24 6,1 C 81 % 1020,8 hPa 0,0 l/m 18,0 km/h (3 Bft) W-SW 238 0 min 0,000 mm 0,0 UV-I 0 W/m 3,1 C -1,0 C 24,1 km/h (4 Bft) 100,00 %
11.12.2016 21:26 6,2 C 81 % 1020,8 hPa 0,0 l/m 16,9 km/h (3 Bft) W-SW 250 0 min 0,000 mm 0,0 UV-I 0 W/m 3,2 C -0,4 C 25,7 km/h (4 Bft) 97,56 %
11.12.2016 21:28 6,2 C 81 % 1020,7 hPa 0,0 l/m 22,2 km/h (4 Bft) S-SW 198 0 min 0,000 mm 0,0 UV-I 0 W/m 3,2 C -2,4 C 29,0 km/h (5 Bft) 100,00 %
11.12.2016 21:30 6,2 C 81 % 1020,7 hPa 0,0 l/m 16,9 km/h (3 Bft) W-SW 250 0 min 0,000 mm 0,0 UV-I 0 W/m 3,2 C -0,4 C 29,0 km/h (5 Bft) 97,37 %
11.12.2016 21:32 6,2 C 81 % 1020,7 hPa 0,0 l/m 18,7 km/h (3 Bft) W 276 0 min 0,000 mm 0,0 UV-I 0 W/m 3,2 C -1,1 C 25,7 km/h (4 Bft) 97,73 %
11.12.2016 21:34 6,2 C 81 % 1020,8 hPa 0,0 l/m 17,5 km/h (3 Bft) W-SW 255 0 min 0,000 mm 0,0 UV-I 0 W/m 3,2 C -0,6 C 20,9 km/h (4 Bft) 98,21 %
11.12.2016 21:36 6,2 C 81 % 1020,7 hPa 0,0 l/m 14,4 km/h (3 Bft) W 261 0 min 0,000 mm 0,0 UV-I 0 W/m 3,2 C 0,8 C 19,3 km/h (3 Bft) 97,56 %
11.12.2016 21:38 6,1 C 81 % 1020,7 hPa 0,0 l/m 16,1 km/h (3 Bft) W-SW 245 0 min 0,000 mm 0,0 UV-I 0 W/m 3,1 C -0,1 C 24,1 km/h (4 Bft) 97,62 %
11.12.2016 21:40 6,1 C 81 % 1020,6 hPa 0,0 l/m 17,6 km/h (3 Bft) W-SW 258 0 min 0,000 mm 0,0 UV-I 0 W/m 3,1 C -0,8 C 27,4 km/h (4 Bft) 98,21 %
11.12.2016 21:42 6,1 C 81 % 1020,6 hPa 0,0 l/m 17,8 km/h (3 Bft) W-SW 250 0 min 0,000 mm 0,0 UV-I 0 W/m 3,1 C -0,9 C 24,1 km/h (4 Bft) 96,15 %
11.12.2016 21:44 6,1 C 81 % 1020,6 hPa 0,0 l/m 17,7 km/h (3 Bft) W 259 0 min 0,000 mm 0,0 UV-I 0 W/m 3,1 C -0,8 C 24,1 km/h (4 Bft) 100,00 %
11.12.2016 21:46 6,1 C 81 % 1020,6 hPa 0,0 l/m 16,9 km/h (3 Bft) W 262 0 min 0,000 mm 0,0 UV-I 0 W/m 3,1 C -0,5 C 25,7 km/h (4 Bft) 96,43 %
11.12.2016 21:48 6,1 C 81 % 1020,6 hPa 0,0 l/m 14,5 km/h (3 Bft) W-SW 245 0 min 0,000 mm 0,0 UV-I 0 W/m 3,1 C 0,7 C 19,3 km/h (3 Bft) 98,21 %
11.12.2016 21:50 6,1 C 81 % 1020,6 hPa 0,0 l/m 15,1 km/h (3 Bft) W 260 0 min 0,000 mm 0,0 UV-I 0 W/m 3,1 C 0,4 C 27,4 km/h (4 Bft) 97,56 %
11.12.2016 21:52 6,1 C 81 % 1020,6 hPa 0,0 l/m 18,6 km/h (3 Bft) SW 236 0 min 0,000 mm 0,0 UV-I 0 W/m 3,1 C -1,2 C 29,0 km/h (5 Bft) 97,87 %
11.12.2016 21:54 6,1 C 81 % 1020,6 hPa 0,0 l/m 13,8 km/h (3 Bft) W-SW 254 0 min 0,000 mm 0,0 UV-I 0 W/m 3,1 C 1,0 C 20,9 km/h (4 Bft) 98,00 %
11.12.2016 21:56 6,1 C 81 % 1020,6 hPa 0,0 l/m 14,9 km/h (3 Bft) W 276 0 min 0,000 mm 0,0 UV-I 0 W/m 3,1 C 0,5 C 20,9 km/h (4 Bft) 95,74 %
11.12.2016 21:58 6,0 C 82 % 1020,6 hPa 0,0 l/m 13,0 km/h (3 Bft) W 263 0 min 0,000 mm 0,0 UV-I 0 W/m 3,2 C 1,3 C 17,7 km/h (3 Bft) 96,23 %
11.12.2016 22:00 6,0 C 82 % 1020,7 hPa 0,0 l/m 13,2 km/h (3 Bft) SW 234 0 min 0,000 mm 0,0 UV-I 0 W/m 3,2 C 1,2 C 22,5 km/h (4 Bft) 95,12 %
11.12.2016 22:02 6,0 C 82 % 1020,7 hPa 0,0 l/m 14,6 km/h (3 Bft) W-SW 240 0 min 0,025 mm 0,0 UV-I 0 W/m 3,2 C 0,5 C 19,3 km/h (3 Bft) 96,00 %
11.12.2016 22:04 5,9 C 82 % 1020,7 hPa 0,0 l/m 14,5 km/h (3 Bft) W-SW 258 0 min 0,000 mm 0,0 UV-I 0 W/m 3,1 C 0,4 C 19,3 km/h (3 Bft) 95,45 %
11.12.2016 22:06 5,9 C 82 % 1020,7 hPa 0,0 l/m 10,4 km/h (2 Bft) S-SW 194 0 min 0,000 mm 0,0 UV-I 0 W/m 3,1 C 2,8 C 16,1 km/h (3 Bft) 98,00 %
11.12.2016 22:08 5,9 C 82 % 1020,7 hPa 0,0 l/m 15,1 km/h (3 Bft) SW 236 0 min 0,000 mm 0,0 UV-I 0 W/m 3,1 C 0,1 C 24,1 km/h (4 Bft) 100,00 %
11.12.2016 22:10 5,9 C 83 % 1020,7 hPa 0,0 l/m 15,1 km/h (3 Bft) W-SW 238 0 min 0,000 mm 0,0 UV-I 0 W/m 3,2 C 0,1 C 20,9 km/h (4 Bft) 100,00 %
11.12.2016 22:12 5,9 C 83 % 1020,7 hPa 0,0 l/m 16,0 km/h (3 Bft) SW 217 0 min 0,000 mm 0,0 UV-I 0 W/m 3,2 C -0,3 C 24,1 km/h (4 Bft) 97,73 %
11.12.2016 22:14 5,9 C 83 % 1020,7 hPa 0,0 l/m 16,1 km/h (3 Bft) W-SW 243 0 min 0,000 mm 0,0 UV-I 0 W/m 3,2 C -0,4 C 25,7 km/h (4 Bft) 97,37 %
11.12.2016 22:16 5,9 C 82 % 1020,7 hPa 0,0 l/m 14,9 km/h (3 Bft) W-SW 248 0 min 0,000 mm 0,0 UV-I 0 W/m 3,1 C 0,2 C 19,3 km/h (3 Bft) 94,34 %
11.12.2016 22:18 5,9 C 83 % 1020,7 hPa 0,0 l/m 12,3 km/h (3 Bft) SW 220 0 min 0,000 mm 0,0 UV-I 0 W/m 3,2 C 1,6 C 16,1 km/h (3 Bft) 100,00 %
11.12.2016 22:20 5,9 C 83 % 1020,7 hPa 0,0 l/m 13,9 km/h (3 Bft) SW 220 0 min 0,000 mm 0,0 UV-I 0 W/m 3,2 C 0,7 C 19,3 km/h (3 Bft) 100,00 %
11.12.2016 22:22 5,9 C 83 % 1020,7 hPa 0,0 l/m 13,2 km/h (3 Bft) W-SW 237 0 min 0,000 mm 0,0 UV-I 0 W/m 3,2 C 1,1 C 20,9 km/h (4 Bft) 100,00 %
11.12.2016 22:24 5,9 C 83 % 1020,7 hPa 0,0 l/m 12,7 km/h (3 Bft) W 261 0 min 0,000 mm 0,0 UV-I 0 W/m 3,2 C 1,4 C 19,3 km/h (3 Bft) 100,00 %
11.12.2016 22:26 5,8 C 83 % 1020,7 hPa 0,0 l/m 13,6 km/h (3 Bft) SW 231 0 min 0,000 mm 0,0 UV-I 0 W/m 3,1 C 0,8 C 20,9 km/h (4 Bft) 97,73 %
11.12.2016 22:28 5,8 C 83 % 1020,7 hPa 0,0 l/m 12,7 km/h (3 Bft) W 278 0 min 0,000 mm 0,0 UV-I 0 W/m 3,1 C 1,3 C 19,3 km/h (3 Bft) 100,00 %
11.12.2016 22:30 5,8 C 83 % 1020,7 hPa 0,0 l/m 13,9 km/h (3 Bft) W 272 0 min 0,000 mm 0,0 UV-I 0 W/m 3,1 C 0,6 C 19,3 km/h (3 Bft) 97,37 %
11.12.2016 22:33 5,8 C 83 % 1020,7 hPa 0,0 l/m 15,2 km/h (3 Bft) W-NW 299 0 min 0,000 mm 0,0 UV-I 0 W/m 3,1 C -0,1 C 20,9 km/h (4 Bft) 100,00 %
11.12.2016 22:34 5,7 C 83 % 1020,7 hPa 0,0 l/m 15,0 km/h (3 Bft) W 262 0 min 0,000 mm 0,0 UV-I 0 W/m 3,0 C -0,1 C 19,3 km/h (3 Bft) 100,00 %
11.12.2016 22:36 5,7 C 83 % 1020,7 hPa 0,0 l/m 12,4 km/h (3 Bft) W-SW 254 0 min 0,000 mm 0,0 UV-I 0 W/m 3,0 C 1,3 C 19,3 km/h (3 Bft) 97,87 %
11.12.2016 22:38 5,7 C 83 % 1020,8 hPa 0,0 l/m 16,1 km/h (3 Bft) W-SW 252 0 min 0,000 mm 0,0 UV-I 0 W/m 3,0 C -0,6 C 27,4 km/h (4 Bft) 100,00 %
11.12.2016 22:40 5,7 C 83 % 1020,7 hPa 0,0 l/m 12,7 km/h (3 Bft) SW 224 0 min 0,000 mm 0,0 UV-I 0 W/m 3,0 C 1,2 C 16,1 km/h (3 Bft) 100,00 %
11.12.2016 22:42 5,7 C 83 % 1020,7 hPa 0,0 l/m 12,6 km/h (3 Bft) W-SW 243 0 min 0,000 mm 0,0 UV-I 0 W/m 3,0 C 1,2 C 20,9 km/h (4 Bft) 100,00 %
11.12.2016 22:44 5,7 C 83 % 1020,7 hPa 0,0 l/m 16,3 km/h (3 Bft) W-SW 244 0 min 0,000 mm 0,0 UV-I 0 W/m 3,0 C -0,7 C 24,1 km/h (4 Bft) 100,00 %
11.12.2016 22:46 5,7 C 83 % 1020,7 hPa 0,0 l/m 18,1 km/h (3 Bft) W-SW 237 0 min 0,000 mm 0,0 UV-I 0 W/m 3,0 C -1,5 C 24,1 km/h (4 Bft) 100,00 %
11.12.2016 22:48 5,7 C 83 % 1020,6 hPa 0,0 l/m 16,7 km/h (3 Bft) W 264 0 min 0,000 mm 0,0 UV-I 0 W/m 3,0 C -0,9 C 22,5 km/h (4 Bft) 100,00 %
11.12.2016 22:50 5,7 C 82 % 1020,6 hPa 0,0 l/m 16,9 km/h (3 Bft) W 259 0 min 0,000 mm 0,0 UV-I 0 W/m 2,9 C -1,0 C 24,1 km/h (4 Bft) 98,51 %
11.12.2016 22:52 5,7 C 82 % 1020,7 hPa 0,0 l/m 18,6 km/h (3 Bft) W-SW 252 0 min 0,000 mm 0,0 UV-I 0 W/m 2,9 C -1,7 C 25,7 km/h (4 Bft) 100,00 %
11.12.2016 22:54 5,7 C 82 % 1020,7 hPa 0,0 l/m 18,5 km/h (3 Bft) W-SW 254 0 min 0,000 mm 0,0 UV-I 0 W/m 2,9 C -1,7 C 27,4 km/h (4 Bft) 100,00 %
11.12.2016 22:56 5,7 C 81 % 1020,7 hPa 0,0 l/m 17,2 km/h (3 Bft) W-SW 240 0 min 0,000 mm 0,0 UV-I 0 W/m 2,7 C -1,1 C 24,1 km/h (4 Bft) 94,34 %
11.12.2016 22:58 5,7 C 81 % 1020,6 hPa 0,0 l/m 17,5 km/h (3 Bft) W 271 0 min 0,000 mm 0,0 UV-I 0 W/m 2,7 C -1,2 C 25,7 km/h (4 Bft) 100,00 %
11.12.2016 23:00 5,8 C 81 % 1020,7 hPa 0,0 l/m 18,7 km/h (3 Bft) SW 236 0 min 0,000 mm 0,0 UV-I 0 W/m 2,8 C -1,6 C 27,4 km/h (4 Bft) 100,00 %
11.12.2016 23:02 5,8 C 81 % 1020,6 hPa 0,0 l/m 16,4 km/h (3 Bft) W 278 0 min 0,026 mm 0,0 UV-I 0 W/m 2,8 C -0,6 C 25,7 km/h (4 Bft) 100,00 %
11.12.2016 23:04 5,8 C 81 % 1020,7 hPa 0,0 l/m 15,0 km/h (3 Bft) SW 229 0 min 0,000 mm 0,0 UV-I 0 W/m 2,8 C 0,0 C 22,5 km/h (4 Bft) 98,11 %
11.12.2016 23:06 5,8 C 81 % 1020,8 hPa 0,0 l/m 15,0 km/h (3 Bft) W-SW 257 0 min 0,000 mm 0,0 UV-I 0 W/m 2,8 C 0,0 C 22,5 km/h (4 Bft) 100,00 %
11.12.2016 23:08 5,8 C 81 % 1020,8 hPa 0,0 l/m 20,3 km/h (4 Bft) W 267 0 min 0,000 mm 0,0 UV-I 0 W/m 2,8 C -2,3 C 33,8 km/h (5 Bft) 100,00 %
11.12.2016 23:10 5,9 C 81 % 1020,8 hPa 0,0 l/m 17,1 km/h (3 Bft) NW 305 0 min 0,000 mm 0,0 UV-I 0 W/m 2,9 C -0,8 C 27,4 km/h (4 Bft) 100,00 %
11.12.2016 23:12 5,9 C 81 % 1020,8 hPa 0,0 l/m 13,5 km/h (3 Bft) W 263 0 min 0,000 mm 0,0 UV-I 0 W/m 2,9 C 0,9 C 22,5 km/h (4 Bft) 100,00 %
11.12.2016 23:14 5,9 C 80 % 1020,8 hPa 0,0 l/m 20,6 km/h (4 Bft) W-SW 244 0 min 0,000 mm 0,0 UV-I 0 W/m 2,7 C -2,2 C 30,6 km/h (5 Bft) 100,00 %
11.12.2016 23:16 6,0 C 80 % 1020,8 hPa 0,0 l/m 22,5 km/h (4 Bft) W-SW 256 0 min 0,000 mm 0,0 UV-I 0 W/m 2,8 C -2,8 C 30,6 km/h (5 Bft) 98,21 %
11.12.2016 23:18 6,0 C 80 % 1020,8 hPa 0,0 l/m 18,1 km/h (3 Bft) W-SW 254 0 min 0,000 mm 0,0 UV-I 0 W/m 2,8 C -1,1 C 25,7 km/h (4 Bft) 100,00 %
11.12.2016 23:20 6,1 C 80 % 1020,8 hPa 0,0 l/m 20,4 km/h (4 Bft) W-SW 253 0 min 0,000 mm 0,0 UV-I 0 W/m 2,9 C -1,9 C 35,4 km/h (5 Bft) 100,00 %
11.12.2016 23:22 6,1 C 80 % 1020,8 hPa 0,0 l/m 18,5 km/h (3 Bft) W 270 0 min 0,000 mm 0,0 UV-I 0 W/m 2,9 C -1,2 C 25,7 km/h (4 Bft) 100,00 %
11.12.2016 23:24 6,1 C 80 % 1020,7 hPa 0,0 l/m 18,3 km/h (3 Bft) W-SW 250 0 min 0,000 mm 0,0 UV-I 0 W/m 2,9 C -1,1 C 30,6 km/h (5 Bft) 98,65 %
11.12.2016 23:26 6,1 C 80 % 1020,8 hPa 0,0 l/m 16,1 km/h (3 Bft) W 270 0 min 0,000 mm 0,0 UV-I 0 W/m 2,9 C -0,1 C 25,7 km/h (4 Bft) 100,00 %
11.12.2016 23:28 6,1 C 80 % 1020,7 hPa 0,0 l/m 19,9 km/h (4 Bft) W-SW 254 0 min 0,000 mm 0,0 UV-I 0 W/m 2,9 C -1,7 C 37,0 km/h (5 Bft) 98,11 %
11.12.2016 23:30 6,2 C 80 % 1020,6 hPa 0,0 l/m 15,6 km/h (3 Bft) W 265 0 min 0,000 mm 0,0 UV-I 0 W/m 3,0 C 0,2 C 20,9 km/h (4 Bft) 100,00 %
11.12.2016 23:32 6,1 C 80 % 1020,6 hPa 0,0 l/m 18,7 km/h (3 Bft) W-SW 240 0 min 0,000 mm 0,0 UV-I 0 W/m 2,9 C -1,2 C 25,7 km/h (4 Bft) 98,00 %
11.12.2016 23:34 6,2 C 80 % 1020,6 hPa 0,0 l/m 20,8 km/h (4 Bft) W 279 0 min 0,000 mm 0,0 UV-I 0 W/m 3,0 C -1,9 C 30,6 km/h (5 Bft) 96,00 %
11.12.2016 23:36 6,2 C 80 % 1020,7 hPa 0,0 l/m 17,9 km/h (3 Bft) W-SW 253 0 min 0,000 mm 0,0 UV-I 0 W/m 3,0 C -0,8 C 27,4 km/h (4 Bft) 100,00 %
11.12.2016 23:38 6,2 C 80 % 1020,6 hPa 0,0 l/m 19,8 km/h (3 Bft) W-SW 256 0 min 0,000 mm 0,0 UV-I 0 W/m 3,0 C -1,5 C 25,7 km/h (4 Bft) 100,00 %
11.12.2016 23:40 6,2 C 80 % 1020,6 hPa 0,0 l/m 20,1 km/h (4 Bft) W 281 0 min 0,000 mm 0,0 UV-I 0 W/m 3,0 C -1,7 C 27,4 km/h (4 Bft) 97,92 %
11.12.2016 23:42 6,2 C 80 % 1020,6 hPa 0,0 l/m 17,0 km/h (3 Bft) W 275 0 min 0,000 mm 0,0 UV-I 0 W/m 3,0 C -0,4 C 25,7 km/h (4 Bft) 92,31 %
11.12.2016 23:44 6,2 C 80 % 1020,6 hPa 0,0 l/m 14,0 km/h (3 Bft) W-SW 253 0 min 0,000 mm 0,0 UV-I 0 W/m 3,0 C 1,0 C 20,9 km/h (4 Bft) 97,62 %
11.12.2016 23:46 6,2 C 80 % 1020,6 hPa 0,0 l/m 20,3 km/h (4 Bft) W 273 0 min 0,000 mm 0,0 UV-I 0 W/m 3,0 C -1,7 C 29,0 km/h (5 Bft) 97,73 %
11.12.2016 23:48 6,2 C 80 % 1020,6 hPa 0,0 l/m 16,6 km/h (3 Bft) W-SW 238 0 min 0,000 mm 0,0 UV-I 0 W/m 3,0 C -0,2 C 24,1 km/h (4 Bft) 96,23 %
11.12.2016 23:50 6,2 C 80 % 1020,6 hPa 0,0 l/m 14,0 km/h (3 Bft) W-SW 256 0 min 0,000 mm 0,0 UV-I 0 W/m 3,0 C 1,0 C 22,5 km/h (4 Bft) 98,00 %
11.12.2016 23:52 6,1 C 80 % 1020,6 hPa 0,0 l/m 19,6 km/h (3 Bft) W 272 0 min 0,000 mm 0,0 UV-I 0 W/m 2,9 C -1,6 C 29,0 km/h (5 Bft) 97,87 %
11.12.2016 23:54 6,1 C 81 % 1020,7 hPa 0,0 l/m 14,4 km/h (3 Bft) SW 220 0 min 0,000 mm 0,0 UV-I 0 W/m 3,1 C 0,7 C 22,5 km/h (4 Bft) 91,49 %
11.12.2016 23:56 6,1 C 81 % 1020,8 hPa 0,0 l/m 12,4 km/h (3 Bft) W-SW 242 0 min 0,000 mm 0,0 UV-I 0 W/m 3,1 C 1,8 C 17,7 km/h (3 Bft) 97,56 %
11.12.2016 23:58 5,9 C 81 % 1020,7 hPa 0,0 l/m 16,0 km/h (3 Bft) SW 226 0 min 0,000 mm 0,0 UV-I 0 W/m 2,9 C -0,3 C 27,4 km/h (4 Bft) 94,34 %
_ Min-Zeit 04:38 10:46 12:40 - 04:26 - - - - - - 04:38 08:54 04:26 06:24
Minimum _ -1,7 C 66 % 1018,8 hPa - 0,0 km/h (0 Bft) - - - - - - -2,4 C -6,9 C 0,0 km/h (0 Bft) 91,49 %
_ Max-Zeit 13:50 00:00 00:00 09:22 13:56 - - 07:58 11:02 10:32 10:44 13:58 10:50 13:52 00:00
Maximum _ 7,8 C 96 % 1023,0 hPa 0,2 l/m 32,1 km/h
W (5 Bft)
- - 2 min 0,127 mm 0,5 UV-I 362 W/m 5,0 C 6,0 C 56,3 km/h
W-SW (7 Bft)
100,00 %
Durchschnitt _ 3,2 C 87 % 1020,6 hPa #0,6 l/m 10,5 km/h (2 Bft) W-SW - #1:32 h #0,559 mm 0,5 UV-I 66 W/m 1,2 C -0,2 C 16,2 km/h (3 Bft) 98,75 %